DW8818 Weather Reports


Display with metric or nautical units.
time (UTC)temp
F
wind
direction
speed
MPH
gust
MPH
rain 1hr
in
rain 24hr
in
rain mn
in
humidity
%
barometer
mb
20210613023258 65 79 0.0 1.0 0.00 0.16 0.03 84 1009.7
20210613023204 65 79 0.0 1.0 0.00 0.16 0.03 84 1009.7
20210613023109 65 79 0.0 1.0 0.00 0.16 0.03 83 1009.7
20210613023023 66 79 0.0 1.0 0.00 0.16 0.03 82 1009.7
20210613022909 66 79 0.0 1.0 0.00 0.16 0.03 82 1009.7
20210613022814 66 79 0.0 1.0 0.00 0.16 0.03 80 1009.6
20210613022704 66 78 0.0 2.0 0.00 0.16 0.03 79 1009.6
20210613022610 66 89 0.0 2.0 0.00 0.16 0.03 77 1009.5
20210613022523 66 117 0.0 2.0 0.00 0.16 0.03 76 1009.4
20210613022401 66 119 0.0 2.0 0.00 0.16 0.03 78 1009.4
20210613022315 66 120 0.0 2.0 0.00 0.16 0.03 78 1009.4
20210613022203 66 137 0.0 2.0 0.00 0.16 0.03 76 1009.4
20210613022108 66 136 1.0 2.0 0.00 0.16 0.03 76 1009.3
20210613022015 66 139 1.0 2.0 0.00 0.16 0.03 77 1009.3
20210613021901 66 138 0.0 2.0 0.00 0.16 0.03 78 1009.3
20210613021813 66 120 0.0 1.0 0.00 0.16 0.03 77 1009.3
20210613021659 66 120 0.0 1.0 0.00 0.16 0.03 77 1009.3
20210613021610 67 104 0.0 1.0 0.00 0.16 0.03 77 1009.4
20210613021516 67 105 0.0 1.0 0.00 0.16 0.03 78 1009.5
20210613021402 67 102 0.0 0.0 0.00 0.16 0.03 76 1009.6
20210613021315 67 102 0.0 0.0 0.00 0.16 0.03 78 1009.7
20210613021201 67 102 0.0 0.0 0.00 0.16 0.03 77 1009.8
20210613021109 67 102 0.0 0.0 0.00 0.16 0.03 76 1009.9
20210613021015 67 101 0.0 0.0 0.00 0.16 0.03 78 1009.9
20210613020901 67 101 0.0 0.0 0.00 0.16 0.03 77 1009.9
20210613020807 68 102 0.0 0.0 0.00 0.16 0.03 77 1009.9
20210613020720 68 102 0.0 0.0 0.00 0.16 0.03 75 1009.9
20210613020606 68 109 0.0 1.0 0.00 0.16 0.03 73 1009.8
20210613020516 68 109 0.0 1.0 0.00 0.16 0.03 72 1009.8
20210613020402 68 108 0.0 1.0 0.00 0.16 0.03 72 1009.8
20210613020308 68 109 0.0 2.0 0.00 0.16 0.03 72 1009.8
20210613020220 68 109 0.0 2.0 0.00 0.16 0.03 72 1009.8
20210613020107 68 108 0.0 2.0 0.00 0.16 0.03 71 1009.8
20210613020015 69 108 0.0 2.0 0.00 0.16 0.03 71 1009.9
20210613015900 69 108 0.0 2.0 0.00 0.16 0.03 71 1009.9
20210613015806 69 109 0.0 2.0 0.00 0.16 0.03 69 1009.9
20210613015720 69 110 0.0 2.0 0.00 0.16 0.03 69 1009.9
20210613015605 69 110 1.0 2.0 0.00 0.16 0.03 69 1009.9
20210613015511 69 110 1.0 5.0 0.00 0.16 0.03 67 1009.9
20210613015401 69 76 0.0 5.0 0.00 0.16 0.03 67 1009.9
20210613015307 69 77 0.0 5.0 0.00 0.16 0.03 67 1010.0
20210613015213 70 77 0.0 5.0 0.00 0.16 0.03 67 1010.0
20210613015058 70 77 0.0 5.0 0.00 0.16 0.03 68 1009.9
20210613015012 70 91 0.0 5.0 0.00 0.16 0.03 64 1009.9
20210613014901 70 91 0.0 5.0 0.00 0.16 0.03 64 1009.9
20210613014807 70 89 1.0 5.0 0.00 0.16 0.03 64 1009.9
20210613014713 71 94 1.0 5.0 0.00 0.16 0.03 64 1009.8
20210613014559 71 117 1.0 3.0 0.00 0.16 0.03 64 1009.8
20210613014512 71 117 1.0 4.0 0.00 0.16 0.03 63 1009.8
20210613014402 71 111 1.0 4.0 0.00 0.16 0.03 63 1009.8
20210613014308 71 113 1.0 4.0 0.00 0.16 0.03 61 1009.8
20210613014214 71 121 0.0 4.0 0.00 0.16 0.03 60 1009.8
20210613014059 71 115 0.0 4.0 0.00 0.16 0.03 60 1009.7
20210613014012 72 115 0.0 4.0 0.00 0.16 0.03 60 1009.7
20210613013918 72 117 0.0 4.0 0.00 0.16 0.03 60 1009.7
20210613013807 72 120 2.0 4.0 0.00 0.16 0.03 59 1009.7
20210613013712 72 120 2.0 4.0 0.00 0.16 0.03 57 1009.7
20210613013559 72 101 1.0 4.0 0.00 0.16 0.03 57 1009.7
20210613013505 72 96 1.0 4.0 0.00 0.16 0.03 57 1009.7
20210613013418 72 112 1.0 4.0 0.00 0.16 0.03 57 1009.7
20210613013308 72 108 1.0 4.0 0.00 0.16 0.03 57 1009.7
20210613013214 72 108 2.0 4.0 0.00 0.16 0.03 57 1009.7
20210613013100 72 114 1.0 4.0 0.00 0.16 0.03 57 1009.7
20210613013006 72 107 1.0 4.0 0.00 0.16 0.03 56 1009.8
20210613012919 72 104 1.0 4.0 0.00 0.16 0.03 56 1009.7
20210613012805 72 117 1.0 4.0 0.00 0.16 0.03 56 1009.7
20210613012712 73 91 0.0 4.0 0.00 0.16 0.03 56 1009.7
20210613012558 73 84 1.0 4.0 0.00 0.16 0.03 55 1009.7
20210613012504 73 113 1.0 4.0 0.00 0.16 0.03 55 1009.6
20210613012417 73 91 1.0 4.0 0.00 0.16 0.03 55 1009.6
20210613012304 73 101 0.0 3.0 0.00 0.16 0.03 56 1009.5
20210613012212 73 98 1.0 3.0 0.00 0.16 0.03 56 1009.5
20210613012058 73 108 2.0 3.0 0.00 0.16 0.03 55 1009.5
20210613012004 73 107 1.0 3.0 0.00 0.16 0.03 55 1009.4
20210613011917 73 91 1.0 3.0 0.00 0.16 0.03 55 1009.4
20210613011822 73 93 1.0 2.0 0.00 0.16 0.03 56 1009.4
20210613011708 73 75 0.0 2.0 0.00 0.16 0.03 56 1009.3
20210613011558 73 105 0.0 2.0 0.00 0.16 0.03 55 1009.4
20210613011504 73 105 0.0 2.0 0.00 0.16 0.03 55 1009.3
20210613011410 73 104 1.0 2.0 0.00 0.16 0.03 55 1009.3
20210613011323 73 105 0.0 2.0 0.00 0.16 0.03 56 1009.3
20210613011208 73 99 0.0 2.0 0.00 0.16 0.03 56 1009.4
20210613011058 73 98 0.0 3.0 0.00 0.16 0.03 55 1009.4
20210613011005 73 99 0.0 3.0 0.00 0.16 0.03 55 1009.4
20210613010911 73 99 0.0 3.0 0.00 0.16 0.03 54 1009.4
20210613010824 73 98 0.0 3.0 0.00 0.16 0.03 54 1009.4
20210613010710 73 99 0.0 3.0 0.00 0.16 0.03 54 1009.4
20210613010600 73 96 0.0 3.0 0.00 0.16 0.03 54 1009.3
20210613010506 73 108 0.0 5.0 0.00 0.16 0.03 55 1009.3
20210613010412 73 107 1.0 5.0 0.00 0.16 0.03 55 1009.3
20210613010257 73 108 1.0 5.0 0.00 0.16 0.03 54 1009.3
20210613010204 74 115 0.0 5.0 0.00 0.16 0.03 54 1009.3
20210613010117 74 114 0.0 5.0 0.00 0.16 0.03 55 1009.3
20210613010006 74 114 0.0 5.0 0.00 0.16 0.03 54 1009.2
20210613005912 74 115 1.0 5.0 0.00 0.16 0.03 55 1009.3
20210613005758 74 114 1.0 5.0 0.00 0.16 0.03 55 1009.3
20210613005704 74 120 2.0 5.0 0.00 0.16 0.03 55 1009.3
20210613005617 74 129 2.0 5.0 0.00 0.16 0.03 54 1009.3
20210613005507 74 117 1.0 4.0 0.00 0.16 0.03 54 1009.3
20210613005413 74 117 1.0 4.0 0.00 0.16 0.03 54 1009.4
20210613005259 74 115 0.0 4.0 0.00 0.16 0.03 54 1009.4
20210613005205 74 115 0.0 4.0 0.00 0.16 0.03 55 1009.3
20210613005118 74 108 0.0 4.0 0.00 0.16 0.03 54 1009.3
20210613005004 74 105 0.0 4.0 0.00 0.16 0.03 54 1009.4
20210613004914 74 129 0.0 4.0 0.00 0.16 0.03 54 1009.4
20210613004800 74 117 1.0 5.0 0.00 0.16 0.03 55 1009.4
20210613004706 74 117 1.0 5.0 0.00 0.16 0.03 53 1009.4
20210613004619 74 127 1.0 5.0 0.00 0.16 0.03 54 1009.4
20210613004524 74 117 1.0 5.0 0.00 0.16 0.03 55 1009.5
20210613004414 74 117 1.0 5.0 0.00 0.16 0.03 54 1009.5
20210613004259 74 112 0.0 5.0 0.00 0.16 0.03 56 1009.5
20210613004205 74 117 0.0 5.0 0.00 0.16 0.03 57 1009.6
20210613004111 74 117 2.0 5.0 0.00 0.16 0.03 56 1009.6
20210613004024 74 117 2.0 5.0 0.00 0.16 0.03 54 1009.7
20210613003910 74 122 1.0 5.0 0.00 0.16 0.03 54 1009.7
20210613003800 74 101 0.0 2.0 0.00 0.16 0.03 56 1009.7
20210613003706 74 102 0.0 4.0 0.00 0.16 0.03 55 1009.7
20210613003612 74 100 0.0 4.0 0.00 0.16 0.03 54 1009.8
20210613003458 74 112 0.0 4.0 0.00 0.16 0.03 55 1009.8
20210613003410 74 111 0.0 4.0 0.00 0.16 0.03 55 1009.8
20210613003300 75 127 0.0 4.0 0.00 0.16 0.03 53 1009.8
20210613003206 75 127 0.0 4.0 0.00 0.16 0.03 53 1009.8
20210613003112 75 115 0.0 4.0 0.00 0.16 0.03 53 1009.8
20210613002957 75 124 1.0 4.0 0.00 0.16 0.03 53 1009.8
20210613002903 75 108 1.0 4.0 0.00 0.16 0.03 53 1009.8
20210613002802 75 103 1.0 4.0 0.00 0.16 0.03 53 1009.8
20210613002705 75 160 1.0 4.0 0.00 0.16 0.03 52 1009.8
20210613002612 75 117 1.0 4.0 0.00 0.16 0.03 54 1009.8
20210613002517 75 116 0.0 4.0 0.00 0.16 0.03 57 1009.8
20210613002403 75 113 1.0 4.0 0.00 0.16 0.03 55 1009.8
20210613002316 75 113 1.0 4.0 0.00 0.16 0.03 53 1009.8
20210613002206 75 113 1.0 4.0 0.00 0.16 0.03 54 1009.8
20210613002112 75 105 0.0 3.0 0.00 0.16 0.03 54 1009.9
20210613001957 75 104 0.0 3.0 0.00 0.16 0.03 55 1009.9
20210613001904 75 105 0.0 3.0 0.00 0.16 0.03 55 1009.9
20210613001817 75 120 0.0 3.0 0.00 0.16 0.03 54 1010.0
20210613001707 75 120 1.0 5.0 0.00 0.16 0.03 54 1010.0
20210613001612 75 132 0.0 5.0 0.00 0.16 0.03 52 1009.9
20210613001458 75 120 0.0 6.0 0.00 0.16 0.03 55 1010.0
20210613001404 75 127 0.0 6.0 0.00 0.16 0.03 56 1010.0
20210613001310 75 112 0.0 6.0 0.00 0.16 0.03 55 1010.0
20210613001223 75 112 0.0 6.0 0.00 0.16 0.03 55 1009.9
20210613001113 75 112 1.0 6.0 0.00 0.16 0.03 55 1010.0
20210613000958 75 110 1.0 6.0 0.00 0.16 0.03 52 1010.0
20210613000905 75 110 3.0 6.0 0.00 0.16 0.03 53 1010.0
20210613000811 76 120 3.0 6.0 0.00 0.16 0.03 53 1010.0
20210613000723 76 113 2.0 6.0 0.00 0.16 0.03 53 1010.1
20210613000614 76 127 1.0 3.0 0.00 0.16 0.03 53 1010.0
20210613000459 76 111 0.0 4.0 0.00 0.16 0.03 54 1010.1
20210613000407 76 111 1.0 4.0 0.00 0.16 0.03 58 1010.1
20210613000310 76 112 1.0 6.0 0.00 0.16 0.03 55 1010.1
20210613000225 76 110 1.0 6.0 0.00 0.16 0.03 52 1010.1
20210613000110 76 112 0.0 6.0 0.00 0.16 0.03 57 1010.1
20210613000000 75 120 0.0 6.0 0.00 0.16 0.03 54 1010.2
20210612235906 75 120 0.0 6.0 0.00 0.16 0.03 56 1010.1
20210612235811 75 120 1.0 6.0 0.00 0.16 0.03 54 1010.1
20210612235724 75 121 2.0 6.0 0.00 0.16 0.03 53 1010.2
20210612235603 75 114 3.0 6.0 0.00 0.16 0.03 52 1010.3
20210612235520 75 102 3.0 6.0 0.00 0.16 0.03 52 1010.2
20210612235405 75 113 3.0 5.0 0.00 0.16 0.03 53 1010.3
20210612235310 75 112 2.0 5.0 0.00 0.16 0.03 54 1010.3
20210612235216 75 121 1.0 3.0 0.00 0.16 0.03 53 1010.3
20210612235102 75 127 0.0 2.0 0.00 0.16 0.03 56 1010.3
20210612235015 75 135 1.0 2.0 0.00 0.16 0.03 54 1010.3
20210612234904 75 117 1.0 2.0 0.00 0.16 0.03 54 1010.3
20210612234810 75 133 0.0 2.0 0.00 0.16 0.03 54 1010.3
20210612234716 75 107 0.0 3.0 0.00 0.16 0.03 52 1010.3
20210612234602 75 112 0.0 3.0 0.00 0.16 0.03 54 1010.3
20210612234515 75 107 0.0 4.0 0.00 0.16 0.03 55 1010.4
20210612234405 75 127 0.0 5.0 0.00 0.16 0.03 55 1010.3
20210612234310 75 166 0.0 5.0 0.00 0.16 0.03 55 1010.4
20210612234216 75 127 0.0 5.0 0.00 0.16 0.03 57 1010.4
20210612234101 75 129 0.0 5.0 0.00 0.16 0.03 54 1010.4
20210612234007 75 120 1.0 5.0 0.00 0.16 0.03 56 1010.5
20210612233905 75 112 1.0 5.0 0.00 0.16 0.03 53 1010.5
20210612233810 75 111 2.0 5.0 0.00 0.16 0.03 56 1010.6
20210612233716 75 107 2.0 5.0 0.00 0.16 0.03 54 1010.6
20210612233602 75 117 1.0 4.0 0.00 0.16 0.03 56 1010.6
20210612233507 75 112 0.0 4.0 0.00 0.16 0.03 56 1010.7
20210612233421 75 112 0.0 4.0 0.00 0.16 0.03 57 1010.6
20210612233311 75 115 0.0 4.0 0.00 0.16 0.03 54 1010.7
20210612233215 75 114 0.0 4.0 0.00 0.16 0.03 54 1010.7
20210612233101 75 114 1.0 4.0 0.00 0.16 0.03 55 1010.7
20210612233007 75 114 1.0 4.0 0.00 0.16 0.03 54 1010.7
20210612232920 75 114 1.0 4.0 0.00 0.16 0.03 54 1010.7
20210612232810 75 106 1.0 4.0 0.00 0.16 0.03 54 1010.8
20210612232716 75 127 0.0 4.0 0.00 0.16 0.03 55 1010.8
20210612232602 75 105 0.0 4.0 0.00 0.16 0.03 57 1010.9
20210612232508 75 105 0.0 4.0 0.00 0.16 0.03 57 1010.9
20210612232414 75 104 1.0 4.0 0.00 0.16 0.03 54 1010.9
20210612232300 75 108 2.0 4.0 0.00 0.16 0.03 53 1011.0
20210612232217 75 89 2.0 4.0 0.00 0.16 0.03 55 1011.0
20210612232103 75 94 2.0 4.0 0.00 0.16 0.03 55 1011.0
20210612232009 75 124 1.0 4.0 0.00 0.16 0.03 55 1011.0
20210612231915 75 117 0.0 4.0 0.00 0.16 0.03 55 1011.0
20210612231801 75 117 0.0 4.0 0.00 0.16 0.03 56 1011.1
20210612231717 75 117 1.0 4.0 0.00 0.16 0.03 58 1011.1
20210612231603 75 117 2.0 5.0 0.00 0.16 0.03 55 1011.1
20210612231510 75 114 2.0 5.0 0.00 0.16 0.03 55 1011.1
20210612231416 75 120 1.0 8.0 0.00 0.16 0.03 58 1011.1
20210612231302 75 113 2.0 8.0 0.00 0.16 0.03 55 1011.0
20210612231215 75 113 1.0 8.0 0.00 0.16 0.03 53 1011.1
20210612231105 75 110 1.0 8.0 0.00 0.16 0.03 55 1011.1
20210612231009 76 117 2.0 8.0 0.00 0.16 0.03 55 1011.2
20210612230915 76 110 2.0 8.0 0.00 0.16 0.03 57 1011.2
20210612230801 76 146 2.0 8.0 0.00 0.16 0.03 59 1011.3
20210612230707 76 117 2.0 8.0 0.00 0.16 0.03 57 1011.3
20210612230623 76 134 3.0 8.0 0.00 0.16 0.03 56 1011.2
20210612230509 76 91 2.0 4.0 0.00 0.16 0.03 56 1011.3
20210612230415 76 110 1.0 5.0 0.00 0.16 0.03 56 1011.3
20210612230301 76 110 1.0 5.0 0.00 0.16 0.03 57 1011.3
20210612230207 76 137 1.0 5.0 0.00 0.16 0.03 54 1011.3
20210612230119 76 141 1.0 5.0 0.00 0.16 0.03 55 1011.3
20210612230010 76 146 1.0 5.0 0.00 0.16 0.03 56 1011.3
20210612225916 76 117 0.0 5.0 0.00 0.16 0.03 56 1011.3
20210612225802 76 118 1.0 5.0 0.00 0.16 0.03 55 1011.4
20210612225708 76 127 2.0 5.0 0.00 0.16 0.03 53 1011.3
20210612225621 76 125 2.0 5.0 0.00 0.16 0.03 53 1011.3
20210612225511 76 139 2.0 6.0 0.00 0.16 0.03 54 1011.3
20210612225416 76 224 2.0 6.0 0.00 0.16 0.03 54 1011.3
20210612225305 76 112 1.0 6.0 0.00 0.16 0.03 53 1011.3
20210612225208 76 138 1.0 6.0 0.00 0.16 0.03 58 1011.4
20210612225115 76 132 1.0 6.0 0.00 0.16 0.03 55 1011.4
20210612225005 76 129 0.0 6.0 0.00 0.16 0.03 55 1011.4
20210612224917 76 166 2.0 6.0 0.00 0.16 0.03 56 1011.4
20210612224801 76 134 2.0 6.0 0.00 0.16 0.03 57 1011.4
20210612224707 76 105 1.0 6.0 0.00 0.16 0.03 55 1011.4
20210612224612 76 106 0.0 6.0 0.00 0.16 0.03 54 1011.5
20210612224457 76 116 0.0 6.0 0.00 0.16 0.03 54 1011.5
20210612224415 76 115 0.0 6.0 0.00 0.16 0.03 57 1011.4
20210612224301 76 117 1.0 6.0 0.00 0.16 0.03 57 1011.6
20210612224207 76 117 3.0 6.0 0.00 0.16 0.03 54 1011.5
20210612224110 76 121 3.0 6.0 0.00 0.16 0.03 53 1011.5
20210612224023 76 117 1.0 7.0 0.00 0.16 0.03 54 1011.5
20210612223913 76 117 0.0 7.0 0.00 0.16 0.03 53 1011.5
20210612223758 76 124 0.0 7.0 0.00 0.16 0.03 53 1011.5
20210612223705 76 124 1.0 7.0 0.00 0.16 0.03 53 1011.6
20210612223610 76 108 1.0 7.0 0.00 0.16 0.03 54 1011.5
20210612223524 76 114 2.0 7.0 0.00 0.16 0.03 52 1011.6
20210612223402 76 211 2.0 7.0 0.00 0.16 0.03 56 1011.6
20210612223319 76 130 2.0 7.0 0.00 0.16 0.03 54 1011.6
20210612223205 76 223 1.0 7.0 0.00 0.16 0.03 56 1011.6
20210612223111 76 118 1.0 5.0 0.00 0.16 0.03 58 1011.6
20210612223014 76 119 1.0 5.0 0.00 0.16 0.03 54 1011.6
20210612222900 76 138 1.0 5.0 0.00 0.16 0.03 54 1011.6
20210612222817 76 139 1.0 5.0 0.00 0.16 0.03 54 1011.6
20210612222702 76 134 1.0 5.0 0.00 0.16 0.03 56 1011.6
20210612222608 76 130 2.0 5.0 0.00 0.16 0.03 57 1011.6
20210612222514 76 142 2.0 5.0 0.00 0.16 0.03 58 1011.6
20210612222400 76 121 3.0 5.0 0.00 0.16 0.03 56 1011.6
20210612222314 76 136 3.0 7.0 0.00 0.16 0.03 55 1011.6
20210612222204 76 115 2.0 7.0 0.00 0.16 0.03 55 1011.6
20210612222110 76 105 1.0 7.0 0.00 0.16 0.03 57 1011.6
20210612222016 75 133 0.0 7.0 0.00 0.16 0.03 60 1011.7
20210612221859 75 129 0.0 7.0 0.00 0.16 0.03 60 1011.7
20210612221805 75 131 1.0 7.0 0.00 0.16 0.03 58 1011.6
20210612221702 75 141 1.0 7.0 0.00 0.16 0.03 56 1011.7
20210612221607 75 122 3.0 7.0 0.00 0.16 0.03 58 1011.7
20210612221512 75 136 3.0 8.0 0.00 0.16 0.03 57 1011.7
20210612221358 75 79 3.0 6.0 0.00 0.16 0.03 56 1011.6
20210612221303 76 117 3.0 6.0 0.00 0.16 0.03 55 1011.7
20210612221217 76 110 2.0 6.0 0.00 0.16 0.03 56 1011.7
20210612221107 76 108 0.0 4.0 0.00 0.16 0.03 56 1011.7
20210612221012 76 134 1.0 4.0 0.00 0.16 0.03 57 1011.7
20210612220858 76 127 1.0 6.0 0.00 0.16 0.03 57 1011.7
20210612220804 76 131 0.0 6.0 0.00 0.16 0.03 56 1011.7
20210612220717 76 110 1.0 6.0 0.00 0.16 0.03 57 1011.7
20210612220607 76 211 1.0 6.0 0.00 0.16 0.03 59 1011.7
20210612220512 76 160 1.0 6.0 0.00 0.16 0.03 59 1011.7
20210612220358 76 239 2.0 6.0 0.00 0.16 0.03 58 1011.8
20210612220304 76 250 1.0 6.0 0.00 0.16 0.03 59 1011.8
20210612220217 76 117 1.0 6.0 0.00 0.16 0.03 59 1011.8
20210612220106 76 133 1.0 6.0 0.00 0.16 0.03 56 1011.8
20210612220012 76 130 1.0 6.0 0.00 0.16 0.03 57 1011.8
20210612215917 75 116 1.0 6.0 0.00 0.16 0.03 54 1011.9
20210612215803 75 211 2.0 6.0 0.00 0.16 0.03 57 1011.9
20210612215708 75 132 1.0 6.0 0.00 0.16 0.03 56 1011.9
20210612215621 75 146 1.0 6.0 0.00 0.16 0.03 59 1011.9
20210612215510 75 128 1.0 4.0 0.00 0.16 0.03 60 1012.0
20210612215416 75 160 1.0 4.0 0.00 0.16 0.03 56 1011.9
20210612215301 75 112 1.0 4.0 0.00 0.16 0.03 59 1012.0
20210612215100 75 110 1.0 4.0 0.00 0.16 0.03 57 1012.0
20210612215017 75 134 0.0 4.0 0.00 0.16 0.03 56 1012.0
20210612214903 75 124 0.0 3.0 0.00 0.16 0.03 56 1012.0
20210612214805 75 126 1.0 4.0 0.00 0.16 0.03 55 1012.0
20210612214711 75 126 1.0 5.0 0.00 0.16 0.03 57 1012.1
20210612214624 75 200 0.0 5.0 0.00 0.16 0.03 59 1012.0
20210612214502 75 114 0.0 5.0 0.00 0.16 0.03 55 1012.2
20210612214419 75 115 1.0 5.0 0.00 0.16 0.03 58 1012.2
20210612214304 74 114 1.0 5.0 0.00 0.16 0.03 59 1012.2
20210612214210 74 120 1.0 5.0 0.00 0.16 0.03 59 1012.3
20210612214116 74 99 1.0 5.0 0.00 0.16 0.03 57 1012.3
20210612214002 74 195 1.0 5.0 0.00 0.16 0.03 57 1012.3
20210612213919 74 110 1.0 7.0 0.00 0.16 0.03 57 1012.3
20210612213805 74 103 1.0 7.0 0.00 0.16 0.03 56 1012.3
20210612213711 74 128 1.0 7.0 0.00 0.16 0.03 59 1012.3
20210612213616 74 117 1.0 7.0 0.00 0.16 0.03 60 1012.2
20210612213503 74 158 1.0 7.0 0.00 0.16 0.03 59 1012.3
20210612213416 74 129 2.0 7.0 0.00 0.16 0.03 57 1012.3
20210612213306 74 129 2.0 7.0 0.00 0.16 0.03 58 1012.3
20210612213212 74 148 2.0 7.0 0.00 0.16 0.03 60 1012.3
20210612213058 74 132 2.0 7.0 0.00 0.16 0.03 61 1012.3
20210612213004 74 126 2.0 6.0 0.00 0.16 0.03 58 1012.3
20210612212910 74 127 1.0 6.0 0.00 0.16 0.03 58 1012.4
20210612212807 74 160 2.0 6.0 0.00 0.16 0.03 59 1012.3
20210612212712 74 117 3.0 8.0 0.00 0.16 0.03 60 1012.4
20210612212558 74 218 1.0 8.0 0.00 0.16 0.03 61 1012.4
20210612212504 74 226 0.0 8.0 0.00 0.16 0.03 63 1012.4
20210612212410 74 102 0.0 8.0 0.00 0.16 0.03 62 1012.4
20210612212300 74 150 1.0 8.0 0.00 0.16 0.03 63 1012.4
20210612212212 74 78 1.0 8.0 0.00 0.16 0.03 59 1012.4
20210612212059 74 132 1.0 8.0 0.00 0.16 0.03 60 1012.5
20210612212005 74 106 2.0 8.0 0.00 0.16 0.03 62 1012.5
20210612211910 73 129 2.0 8.0 0.00 0.16 0.03 65 1012.5
20210612211823 73 215 2.0 8.0 0.00 0.16 0.03 64 1012.5
20210612211713 73 133 2.0 5.0 0.00 0.16 0.03 59 1012.6
20210612211558 73 194 1.0 7.0 0.00 0.16 0.03 60 1012.6
20210612211504 73 212 1.0 7.0 0.00 0.16 0.03 62 1012.6
20210612211409 73 110 2.0 7.0 0.00 0.16 0.03 63 1012.7
20210612211315 73 180 2.0 7.0 0.00 0.16 0.03 62 1012.7
20210612211212 73 136 2.0 7.0 0.00 0.16 0.03 63 1012.7
20210612211057 73 103 1.0 8.0 0.00 0.16 0.03 62 1012.6
20210612211003 73 120 3.0 8.0 0.00 0.16 0.03 60 1012.6
20210612210909 73 201 3.0 8.0 0.00 0.16 0.03 60 1012.7
20210612210821 73 228 3.0 8.0 0.00 0.16 0.03 64 1012.7
20210612210723 73 241 3.0 8.0 0.00 0.16 0.03 60 1012.7
20210612210411 73 226 6.0 8.0 0.00 0.16 0.03 59 1012.7
20210612210316 73 222 4.0 8.0 0.00 0.16 0.03 59 1012.8
20210612210201 73 214 2.0 6.0 0.00 0.16 0.03 63 1012.8
20210612210114 73 147 3.0 6.0 0.00 0.16 0.03 60 1012.8
20210612210003 72 252 4.0 6.0 0.00 0.16 0.03 57 1012.8
20210612205909 72 246 4.0 9.0 0.00 0.16 0.03 57 1012.8
20210612205814 73 222 4.0 9.0 0.00 0.16 0.03 58 1012.8
20210612205659 73 169 3.0 9.0 0.00 0.16 0.03 60 1012.8
20210612205611 73 232 4.0 9.0 0.00 0.16 0.03 60 1012.8
20210612205501 73 214 3.0 9.0 0.00 0.16 0.03 61 1012.8
20210612205406 73 240 2.0 9.0 0.00 0.16 0.03 63 1012.8
20210612205312 73 250 1.0 9.0 0.00 0.16 0.03 60 1012.8
20210612205157 72 136 3.0 9.0 0.00 0.16 0.03 58 1012.9
20210612205110 72 117 3.0 9.0 0.00 0.16 0.03 59 1012.9
20210612205016 72 240 2.0 8.0 0.00 0.16 0.03 59 1012.8
20210612204705 72 207 1.0 8.0 0.00 0.16 0.03 60 1012.9
20210612204604 72 124 3.0 8.0 0.00 0.16 0.03 60 1012.9
20210612204510 72 144 5.0 8.0 0.00 0.16 0.03 61 1012.9
20210612204422 72 218 6.0 8.0 0.00 0.16 0.03 61 1012.9
20210612204307 73 226 4.0 8.0 0.00 0.16 0.03 62 1012.9
20210612204216 73 228 3.0 6.0 0.00 0.16 0.03 61 1012.9
20210612204101 73 121 4.0 6.0 0.00 0.16 0.03 59 1013.0
20210612204003 73 217 2.0 6.0 0.00 0.16 0.03 60 1013.0
20210612203916 73 179 1.0 4.0 0.00 0.16 0.03 59 1013.0
20210612203820 73 121 2.0 4.0 0.00 0.16 0.03 59 1013.0
20210612203705 73 146 1.0 4.0 0.00 0.16 0.03 61 1013.0
20210612203615 73 121 1.0 5.0 0.00 0.16 0.03 63 1013.1
20210612203500 73 128 1.0 5.0 0.00 0.16 0.03 62 1013.0
20210612203405 73 128 1.0 8.0 0.00 0.16 0.03 60 1013.0
20210612203318 73 141 1.0 8.0 0.00 0.16 0.03 63 1013.0
20210612203203 73 109 1.0 8.0 0.00 0.16 0.03 59 1013.1
20210612203113 73 112 1.0 8.0 0.00 0.16 0.03 60 1013.1
20210612203018 73 118 1.0 8.0 0.00 0.16 0.03 61 1013.1
20210612202904 73 113 2.0 8.0 0.00 0.16 0.03 64 1013.2
20210612202816 73 211 2.0 8.0 0.00 0.16 0.03 64 1013.2
20210612202701 73 128 2.0 8.0 0.00 0.16 0.03 64 1013.2
20210612202606 73 117 4.0 8.0 0.00 0.16 0.03 59 1013.1
20210612202515 73 117 3.0 7.0 0.00 0.16 0.03 60 1013.1
20210612202400 73 136 2.0 7.0 0.00 0.16 0.03 60 1013.1
20210612202314 73 125 3.0 7.0 0.00 0.16 0.03 64 1013.1
20210612202218 73 160 3.0 7.0 0.00 0.16 0.03 60 1013.2
20210612202101 73 121 2.0 7.0 0.00 0.16 0.03 59 1013.2
20210612202010 73 112 1.0 7.0 0.00 0.16 0.03 59 1013.2
20210612201915 73 114 2.0 7.0 0.00 0.16 0.03 62 1013.2
20210612201800 73 126 3.0 7.0 0.00 0.16 0.03 60 1013.3
20210612201713 73 126 3.0 6.0 0.00 0.16 0.03 65 1013.3
20210612201618 72 115 3.0 6.0 0.00 0.16 0.03 65 1013.3
20210612201503 72 114 2.0 6.0 0.00 0.16 0.03 63 1013.3
20210612201413 72 127 2.0 6.0 0.00 0.16 0.03 65 1013.3
20210612201325 72 117 2.0 6.0 0.00 0.16 0.03 62 1013.4
20210612201210 72 121 2.0 5.0 0.00 0.16 0.03 61 1013.4
20210612201116 72 131 2.0 6.0 0.00 0.16 0.03 60 1013.4
20210612201001 72 117 3.0 8.0 0.00 0.16 0.03 60 1013.4
20210612200911 72 117 2.0 8.0 0.00 0.16 0.03 62 1013.5
20210612200823 72 133 1.0 8.0 0.00 0.16 0.03 66 1013.5
20210612200709 72 116 1.0 8.0 0.00 0.16 0.03 63 1013.5
20210612200613 72 127 1.0 8.0 0.00 0.16 0.03 64 1013.5
20210612200459 71 136 1.0 8.0 0.00 0.16 0.03 64 1013.6
20210612200404 71 127 2.0 8.0 0.00 0.16 0.03 66 1013.6
20210612200314 71 163 4.0 8.0 0.00 0.16 0.03 65 1013.7
20210612200159 71 155 5.0 9.0 0.00 0.16 0.03 62 1013.6
20210612200112 71 238 3.0 8.0 0.00 0.16 0.03 62 1013.6
20210612200015 71 214 2.0 8.0 0.00 0.16 0.03 66 1013.7
20210612195859 71 238 5.0 8.0 0.00 0.19 0.03 65 1013.6
20210612195809 72 221 5.0 8.0 0.00 0.19 0.03 63 1013.5
20210612195721 72 224 5.0 8.0 0.00 0.19 0.03 65 1013.6
20210612195606 72 214 3.0 8.0 0.00 0.19 0.03 67 1013.6
20210612195508 71 141 2.0 6.0 0.00 0.19 0.03 63 1013.5
20210612195414 71 144 4.0 6.0 0.00 0.19 0.03 63 1013.6
20210612195326 71 231 5.0 6.0 0.00 0.19 0.03 61 1013.7
20210612195215 71 250 5.0 7.0 0.00 0.19 0.03 64 1013.7
20210612195120 71 236 3.0 7.0 0.00 0.19 0.03 62 1013.7
20210612195004 71 210 1.0 6.0 0.00 0.19 0.03 67 1013.9
20210612194909 71 121 1.0 6.0 0.00 0.19 0.03 64 1013.9
20210612194814 71 148 3.0 6.0 0.00 0.19 0.03 61 1013.9
20210612194703 71 229 2.0 7.0 0.00 0.19 0.03 62 1013.9
20210612194616 71 198 1.0 4.0 0.00 0.19 0.03 64 1013.9
20210612194517 71 144 0.0 4.0 0.00 0.19 0.03 66 1013.9
20210612194403 71 108 0.0 4.0 0.00 0.19 0.03 65 1013.9
20210612194308 71 107 1.0 4.0 0.00 0.19 0.03 65 1014.0
20210612194221 71 147 1.0 4.0 0.00 0.19 0.03 68 1014.0
20210612194110 71 215 1.0 5.0 0.00 0.19 0.03 63 1013.9
20210612194016 71 120 1.0 5.0 0.00 0.19 0.03 63 1014.0
20210612193901 71 115 2.0 5.0 0.00 0.19 0.03 62 1014.0
20210612193806 71 97 2.0 5.0 0.00 0.19 0.03 64 1014.0
20210612193719 71 120 1.0 5.0 0.00 0.19 0.03 65 1014.0
20210612193608 71 107 1.0 7.0 0.00 0.19 0.03 68 1014.0
20210612193513 70 126 1.0 7.0 0.00 0.19 0.03 68 1014.0
20210612193418 70 217 2.0 7.0 0.00 0.19 0.03 67 1014.0
20210612193303 70 133 2.0 7.0 0.00 0.19 0.03 65 1014.0
20210612193208 70 96 2.0 7.0 0.00 0.19 0.03 65 1014.0
20210612193121 70 87 2.0 7.0 0.00 0.19 0.03 65 1014.0
20210612193010 70 105 3.0 7.0 0.00 0.19 0.03 65 1014.0
20210612192916 70 120 4.0 7.0 0.00 0.19 0.03 65 1014.0
20210612192801 70 117 3.0 7.0 0.00 0.19 0.03 68 1014.0
20210612192706 70 110 3.0 7.0 0.00 0.19 0.03 68 1014.1
20210612192619 70 124 3.0 7.0 0.00 0.19 0.03 65 1014.1
20210612192508 70 188 2.0 6.0 0.00 0.19 0.03 66 1014.1
20210612192412 70 125 0.0 6.0 0.00 0.19 0.03 68 1014.1
20210612192317 70 111 1.0 6.0 0.00 0.19 0.03 67 1014.1
20210612192202 70 132 2.0 6.0 0.00 0.19 0.03 66 1014.1
20210612192115 70 195 2.0 6.0 0.00 0.19 0.03 66 1014.0
20210612192000 70 132 2.0 6.0 0.00 0.19 0.03 66 1014.0
20210612191908 70 218 2.0 7.0 0.00 0.19 0.03 65 1014.0
20210612191813 70 124 2.0 7.0 0.00 0.19 0.03 66 1014.0
20210612191658 70 240 2.0 7.0 0.00 0.19 0.03 68 1014.0
20210612191612 70 214 1.0 7.0 0.00 0.19 0.03 70 1014.0
20210612191516 69 124 1.0 7.0 0.00 0.19 0.03 65 1014.0
20210612191404 69 109 2.0 7.0 0.00 0.19 0.03 66 1014.0
20210612191309 69 141 3.0 7.0 0.00 0.19 0.03 68 1014.0
20210612191215 69 117 3.0 7.0 0.00 0.19 0.03 65 1014.1
20210612191100 70 131 2.0 7.0 0.00 0.19 0.03 67 1014.1
20210612191012 70 124 2.0 6.0 0.00 0.19 0.03 68 1014.0
20210612190916 69 104 2.0 5.0 0.00 0.19 0.03 68 1014.0
20210612190805 69 120 2.0 6.0 0.00 0.19 0.03 68 1014.1
20210612190710 69 139 3.0 6.0 0.00 0.19 0.03 69 1014.1
20210612190622 69 120 3.0 6.0 0.00 0.19 0.03 69 1014.1
20210612190507 69 103 2.0 6.0 0.00 0.19 0.03 71 1014.1
20210612190413 69 117 1.0 6.0 0.00 0.19 0.03 69 1014.1
20210612190302 69 131 1.0 6.0 0.00 0.19 0.03 70 1014.1
20210612190208 69 140 2.0 7.0 0.00 0.19 0.03 70 1014.1
20210612190120 69 120 2.0 7.0 0.00 0.19 0.03 68 1014.1
20210612190005 69 203 2.0 7.0 0.00 0.19 0.03 67 1014.0
20210612185910 69 133 2.0 7.0 0.00 0.19 0.03 67 1014.1
20210612185815 69 139 1.0 7.0 0.00 0.19 0.03 72 1014.1
20210612185705 69 107 0.0 7.0 0.00 0.19 0.03 70 1014.1
20210612185618 69 134 0.0 7.0 0.00 0.19 0.03 70 1014.1
20210612185522 68 139 3.0 7.0 0.00 0.19 0.03 67 1014.1
20210612185408 69 221 5.0 7.0 0.00 0.19 0.03 67 1014.0
20210612185313 69 217 5.0 7.0 0.00 0.19 0.03 68 1014.1
20210612185202 69 214 4.0 7.0 0.00 0.19 0.03 67 1014.1
20210612185108 69 224 3.0 7.0 0.00 0.19 0.03 70 1014.0
20210612185020 69 113 2.0 7.0 0.00 0.19 0.03 69 1014.0
20210612184905 68 127 2.0 8.0 0.00 0.19 0.03 68 1014.0
20210612184810 68 100 3.0 9.0 0.00 0.19 0.03 68 1014.0
20210612184716 68 153 3.0 9.0 0.00 0.19 0.03 68 1014.0
20210612184605 68 141 2.0 9.0 0.00 0.19 0.03 70 1014.1
20210612184518 68 111 1.0 9.0 0.00 0.19 0.03 69 1014.1
20210612184402 68 134 1.0 9.0 0.00 0.19 0.03 70 1014.1
20210612184306 68 126 2.0 9.0 0.00 0.19 0.03 73 1014.2
20210612184211 68 129 3.0 9.0 0.00 0.19 0.03 70 1014.3
20210612184101 68 172 3.0 9.0 0.00 0.19 0.03 70 1014.3
20210612184013 68 198 3.0 9.0 0.00 0.19 0.03 70 1014.2
20210612183918 68 198 4.0 8.0 0.00 0.19 0.03 72 1014.2
20210612183802 68 200 4.0 10.0 0.00 0.19 0.03 70 1014.3
20210612183707 68 226 3.0 10.0 0.00 0.19 0.03 71 1014.3
20210612183612 68 173 2.0 10.0 0.00 0.19 0.03 72 1014.2
20210612183501 68 138 2.0 10.0 0.00 0.19 0.03 71 1014.3
20210612183414 68 204 3.0 10.0 0.00 0.19 0.03 71 1014.3
20210612183318 68 221 3.0 10.0 0.00 0.19 0.03 73 1014.3
20210612183204 68 187 1.0 10.0 0.00 0.19 0.03 74 1014.3
20210612183109 68 127 4.0 10.0 0.00 0.19 0.03 73 1014.3
20210612183021 67 140 5.0 10.0 0.00 0.19 0.03 71 1014.3
20210612182910 67 225 6.0 10.0 0.00 0.19 0.03 71 1014.3
20210612182816 68 179 4.0 9.0 0.00 0.19 0.03 70 1014.4
20210612182701 68 132 3.0 9.0 0.00 0.19 0.03 74 1014.4
20210612182606 68 136 3.0 9.0 0.00 0.19 0.03 72 1014.4
20210612182518 68 214 3.0 9.0 0.00 0.19 0.03 73 1014.4
20210612182407 68 117 1.0 9.0 0.00 0.19 0.03 75 1014.3
20210612182312 67 132 3.0 9.0 0.00 0.19 0.03 75 1014.3
20210612182218 67 114 5.0 9.0 0.00 0.19 0.03 73 1014.4
20210612182103 67 191 3.0 10.0 0.00 0.19 0.03 72 1014.3
20210612182008 68 219 1.0 5.0 0.00 0.19 0.03 73 1014.4
20210612181921 67 141 1.0 4.0 0.00 0.19 0.03 75 1014.5
20210612181810 67 120 1.0 4.0 0.00 0.19 0.03 75 1014.5
20210612181716 67 214 1.0 5.0 0.00 0.19 0.03 74 1014.5
20210612181601 67 156 1.0 5.0 0.00 0.19 0.03 73 1014.6
20210612181506 67 141 2.0 5.0 0.00 0.19 0.03 72 1014.7
20210612181419 67 150 1.0 5.0 0.00 0.19 0.03 75 1014.7
20210612181308 67 130 1.0 5.0 0.00 0.19 0.03 74 1014.7
20210612181212 67 136 1.0 5.0 0.00 0.19 0.03 74 1014.7
20210612181117 67 117 1.0 5.0 0.00 0.19 0.03 75 1014.8
20210612181002 67 132 2.0 5.0 0.00 0.19 0.03 74 1014.7
20210612180915 67 132 1.0 5.0 0.00 0.19 0.03 73 1014.8
20210612180804 67 139 1.0 5.0 0.00 0.19 0.03 76 1014.7
20210612180709 67 144 2.0 5.0 0.00 0.19 0.03 75 1014.7
20210612180614 67 108 2.0 5.0 0.00 0.19 0.03 74 1014.7
20210612180526 67 170 1.0 5.0 0.00 0.19 0.03 74 1014.7
20210612180404 67 129 1.0 4.0 0.00 0.19 0.03 77 1014.8
20210612180316 67 119 1.0 4.0 0.00 0.19 0.03 74 1014.8
20210612180205 67 136 2.0 4.0 0.00 0.19 0.03 74 1014.8
20210612180110 67 137 2.0 4.0 0.00 0.19 0.03 75 1014.8
20210612180016 67 166 2.0 5.0 0.00 0.19 0.03 79 1014.8
20210612175901 67 153 1.0 4.0 0.00 0.20 0.03 76 1014.8
20210612175813 67 141 2.0 4.0 0.00 0.20 0.03 77 1014.9
20210612175703 67 104 1.0 4.0 0.00 0.20 0.03 76 1014.9
20210612175608 67 138 2.0 4.0 0.00 0.20 0.03 75 1014.9
20210612175514 67 138 1.0 4.0 0.00 0.20 0.03 77 1014.9
20210612175359 67 297 1.0 4.0 0.00 0.20 0.03 73 1014.9
20210612175311 66 15 2.0 4.0 0.00 0.20 0.03 73 1014.9
20210612175216 66 342 2.0 4.0 0.00 0.20 0.03 75 1015.0
20210612175105 66 214 0.0 4.0 0.00 0.20 0.03 77 1014.9
20210612175010 66 110 0.0 4.0 0.00 0.20 0.03 75 1015.0
20210612174923 66 122 0.0 4.0 0.00 0.20 0.03 78 1015.1
20210612174808 66 129 1.0 4.0 0.00 0.20 0.03 76 1015.1
20210612174713 66 134 1.0 4.0 0.00 0.20 0.03 75 1015.1
20210612174602 66 190 2.0 7.0 0.00 0.20 0.03 74 1015.1
20210612174508 66 266 2.0 7.0 0.00 0.20 0.03 74 1015.1
20210612174413 66 246 1.0 7.0 0.00 0.20 0.03 76 1015.2
20210612174258 65 117 0.0 7.0 0.00 0.20 0.03 77 1015.2
20210612174211 65 135 1.0 7.0 0.00 0.20 0.03 75 1015.1
20210612174115 65 266 1.0 7.0 0.00 0.20 0.03 75 1015.2
20210612174004 65 294 2.0 7.0 0.00 0.20 0.03 73 1015.3
20210612173909 65 262 3.0 7.0 0.00 0.20 0.03 73 1015.3
20210612173822 65 214 4.0 7.0 0.00 0.20 0.03 74 1015.3
20210612173707 66 269 3.0 5.0 0.00 0.20 0.03 77 1015.3
20210612173611 66 275 3.0 6.0 0.00 0.20 0.03 78 1015.3
20210612173459 65 269 2.0 6.0 0.00 0.20 0.03 78 1015.3
20210612173404 65 281 1.0 6.0 0.00 0.20 0.03 76 1015.3
20210612173316 65 113 1.0 6.0 0.00 0.20 0.03 76 1015.3
20210612173202 65 204 2.0 6.0 0.00 0.20 0.03 77 1015.4
20210612173106 65 235 4.0 6.0 0.00 0.20 0.03 78 1015.4
20210612173012 65 239 5.0 6.0 0.00 0.20 0.03 76 1015.4
20210612172901 65 207 5.0 6.0 0.00 0.20 0.03 75 1015.4
20210612172814 65 243 3.0 7.0 0.00 0.20 0.03 78 1015.5
20210612172717 65 232 1.0 6.0 0.00 0.20 0.03 80 1015.5
20210612172559 65 225 0.0 3.0 0.00 0.20 0.03 79 1015.5
20210612172505 65 129 0.0 3.0 0.00 0.20 0.03 77 1015.5
20210612172410 65 129 0.0 3.0 0.00 0.20 0.03 78 1015.6
20210612172300 65 137 1.0 3.0 0.00 0.20 0.03 78 1015.6
20210612172212 65 127 2.0 3.0 0.00 0.20 0.03 78 1015.6
20210612172117 64 214 2.0 3.0 0.00 0.20 0.03 80 1015.7
20210612172003 64 212 1.0 3.0 0.00 0.20 0.03 78 1015.8
20210612171908 64 131 0.0 3.0 0.00 0.20 0.03 77 1015.8
20210612171825 64 129 0.0 3.0 0.00 0.20 0.03 77 1015.8
20210612171710 64 130 1.0 4.0 0.00 0.20 0.03 77 1015.8
20210612171616 64 148 1.0 4.0 0.00 0.20 0.03 78 1015.9
20210612171501 64 129 0.0 4.0 0.00 0.20 0.03 78 1015.9
20210612171406 64 129 0.0 4.0 0.00 0.20 0.03 77 1015.9
20210612171319 64 128 0.0 4.0 0.00 0.20 0.03 78 1016.0
20210612171206 64 110 1.0 4.0 0.00 0.20 0.03 80 1016.0
20210612171111 64 155 1.0 4.0 0.00 0.20 0.03 80 1016.0
20210612171017 64 226 1.0 4.0 0.00 0.20 0.03 80 1016.0
20210612170902 64 221 1.0 4.0 0.00 0.20 0.03 80 1016.0
20210612170808 64 119 0.0 3.0 0.00 0.20 0.03 82 1016.0
20210612170724 64 119 0.0 3.0 0.00 0.20 0.03 83 1016.0
20210612170609 64 118 1.0 3.0 0.00 0.20 0.03 80 1016.0
20210612170515 64 232 1.0 3.0 0.00 0.20 0.03 81 1016.0
20210612170400 64 242 1.0 3.0 0.00 0.20 0.03 83 1016.0
20210612170305 64 239 0.0 3.0 0.00 0.20 0.03 84 1016.0
20210612170218 64 133 1.0 3.0 0.00 0.20 0.03 83 1016.0
20210612170107 64 132 2.0 3.0 0.00 0.20 0.03 82 1016.1
20210612170011 64 238 1.0 3.0 0.00 0.20 0.03 83 1016.1
20210612165915 64 221 0.0 3.0 0.00 0.24 0.03 84 1016.1
20210612165800 64 117 0.0 2.0 0.00 0.24 0.03 82 1016.1
20210612165713 64 134 0.0 2.0 0.00 0.24 0.03 82 1016.1
20210612165602 64 133 0.0 2.0 0.00 0.24 0.03 84 1016.2
20210612165506 64 134 0.0 2.0 0.00 0.24 0.03 84 1016.2
20210612165411 64 124 0.0 1.0 0.00 0.24 0.03 83 1016.2
20210612165316 64 120 0.0 1.0 0.00 0.24 0.03 83 1016.2
20210612165201 64 120 0.0 1.0 0.00 0.24 0.03 83 1016.2
20210612165113 64 110 0.0 1.0 0.00 0.24 0.03 83 1016.2
20210612165002 64 150 0.0 1.0 0.00 0.24 0.03 82 1016.2
20210612164907 64 150 0.0 1.0 0.00 0.24 0.03 83 1016.2
20210612164813 64 95 0.0 1.0 0.00 0.24 0.03 83 1016.3
20210612164724 63 96 0.0 1.0 0.00 0.24 0.03 81 1016.3
20210612164610 63 96 0.0 1.0 0.00 0.24 0.03 83 1016.3
20210612164459 63 93 0.0 1.0 0.00 0.24 0.03 84 1016.3
20210612164404 63 85 0.0 1.0 0.00 0.24 0.03 84 1016.3
20210612164309 63 85 0.0 1.0 0.00 0.24 0.03 83 1016.3
20210612164222 63 84 0.0 1.0 0.00 0.24 0.03 83 1016.3
20210612164107 63 84 0.0 1.0 0.00 0.24 0.03 83 1016.3
20210612164012 63 83 0.0 1.0 0.00 0.24 0.03 82 1016.3
20210612163901 63 101 0.0 1.0 0.00 0.24 0.03 81 1016.3
20210612163806 63 107 0.0 1.0 0.00 0.24 0.03 81 1016.3
20210612163706 63 108 0.0 1.0 0.00 0.24 0.03 82 1016.3
20210612163616 63 107 0.0 1.0 0.00 0.24 0.03 82 1016.3
20210612163500 63 117 0.0 1.0 0.00 0.24 0.03 83 1016.3
20210612163408 63 117 0.0 1.0 0.00 0.24 0.03 82 1016.4
20210612163314 63 119 0.0 1.0 0.00 0.24 0.03 83 1016.3
20210612163159 63 134 0.0 2.0 0.00 0.24 0.03 83 1016.4
20210612163111 63 133 0.0 2.0 0.00 0.24 0.03 83 1016.4
20210612163014 63 132 0.0 2.0 0.00 0.24 0.03 83 1016.4
20210612162859 63 133 0.0 2.0 0.00 0.24 0.03 84 1016.4
20210612162808 63 133 0.0 2.0 0.00 0.24 0.03 84 1016.4
20210612162720 63 133 0.0 2.0 0.00 0.24 0.03 85 1016.5
20210612162606 63 132 0.0 3.0 0.00 0.24 0.03 85 1016.5
20210612162508 63 134 0.0 3.0 0.00 0.24 0.03 85 1016.6
20210612162414 63 133 0.0 3.0 0.00 0.24 0.03 84 1016.6
20210612162305 63 274 0.0 3.0 0.00 0.24 0.03 83 1016.6
20210612162215 63 274 0.0 3.0 0.00 0.24 0.03 84 1016.5
20210612162120 63 271 1.0 3.0 0.00 0.24 0.03 84 1016.5
20210612162004 63 232 0.0 3.0 0.00 0.24 0.03 88 1016.5
20210612161910 63 115 0.0 3.0 0.00 0.24 0.03 88 1016.5
20210612161815 63 143 0.0 3.0 0.00 0.24 0.03 89 1016.5
20210612161703 63 108 0.0 2.0 0.00 0.24 0.03 89 1016.6
20210612161615 63 109 0.0 2.0 0.00 0.24 0.03 89 1016.5
20210612161517 62 108 0.0 2.0 0.00 0.24 0.03 88 1016.6
20210612161402 62 108 0.0 2.0 0.00 0.24 0.03 87 1016.6
20210612161308 62 129 0.0 3.0 0.00 0.24 0.03 87 1016.6
20210612161220 62 129 1.0 3.0 0.00 0.24 0.03 87 1016.6
20210612161110 62 173 0.0 3.0 0.00 0.24 0.03 88 1016.6
20210612161012 62 107 0.0 3.0 0.00 0.24 0.03 88 1016.6
20210612160917 62 108 0.0 3.0 0.00 0.24 0.03 88 1016.6
20210612160803 62 105 0.0 3.0 0.00 0.24 0.03 88 1016.6
20210612160715 62 105 0.0 3.0 0.00 0.24 0.03 88 1016.6
20210612160604 62 105 1.0 3.0 0.00 0.24 0.03 88 1016.6
20210612160510 62 198 1.0 3.0 0.00 0.24 0.03 90 1016.6
20210612160415 62 167 1.0 3.0 0.00 0.24 0.03 89 1016.6
20210612160301 62 163 0.0 2.0 0.00 0.24 0.03 91 1016.5
20210612160206 62 81 0.0 1.0 0.00 0.24 0.03 90 1016.6
20210612160118 62 153 0.0 1.0 0.00 0.24 0.03 90 1016.6
20210612160008 62 152 0.0 1.0 0.00 0.24 0.03 90 1016.6
20210612155914 61 119 0.0 1.0 0.00 0.24 0.03 90 1016.7
20210612155758 61 119 0.0 1.0 0.00 0.24 0.03 90 1016.7
20210612155704 61 119 0.0 1.0 0.00 0.24 0.03 89 1016.7
20210612155617 61 119 0.0 1.0 0.00 0.24 0.03 89 1016.7
20210612155506 61 119 0.0 1.0 0.00 0.24 0.03 90 1016.7
20210612155411 61 117 0.0 0.0 0.00 0.24 0.03 90 1016.8
20210612155317 61 117 0.0 1.0 0.00 0.24 0.03 90 1016.7
20210612155202 61 117 0.0 1.0 0.00 0.24 0.03 90 1016.7
20210612155114 61 117 0.0 1.0 0.00 0.24 0.03 89 1016.7
20210612155004 61 117 0.0 1.0 0.00 0.24 0.03 88 1016.7
20210612154908 61 117 0.0 2.0 0.00 0.24 0.03 88 1016.7
20210612154814 61 117 0.0 2.0 0.00 0.24 0.03 88 1016.7
20210612154659 61 117 0.0 2.0 0.00 0.24 0.03 88 1016.7
20210612154613 61 117 0.0 2.0 0.00 0.24 0.03 88 1016.7
20210612154517 61 117 0.0 2.0 0.00 0.24 0.03 88 1016.6
20210612154404 61 117 0.0 2.0 0.00 0.24 0.03 89 1016.7
20210612154309 61 117 0.0 2.0 0.00 0.24 0.03 90 1016.7
20210612154215 61 117 0.0 2.0 0.00 0.24 0.03 89 1016.6
20210612154100 61 229 0.0 3.0 0.00 0.24 0.03 89 1016.6
20210612154013 61 305 0.0 1.0 0.00 0.24 0.03 89 1016.6
20210612153901 61 307 0.0 1.0 0.00 0.24 0.03 90 1016.6
20210612153806 61 262 0.0 1.0 0.00 0.24 0.03 90 1016.6
20210612153712 61 262 0.0 1.0 0.00 0.24 0.03 91 1016.7
20210612153623 61 262 0.0 1.0 0.00 0.24 0.03 91 1016.7
20210612153508 61 262 0.0 1.0 0.00 0.24 0.03 91 1016.6
20210612153414 61 262 0.0 1.0 0.00 0.24 0.03 91 1016.7
20210612153303 60 262 0.0 1.0 0.00 0.24 0.03 90 1016.7
20210612153209 60 262 0.0 1.0 0.00 0.24 0.03 91 1016.6
20210612153120 60 262 0.0 1.0 0.00 0.24 0.03 91 1016.7
20210612152958 60 250 0.0 1.0 0.00 0.24 0.03 90 1016.7
20210612152911 60 250 0.0 1.0 0.00 0.24 0.03 91 1016.7
20210612152800 60 250 0.0 1.0 0.00 0.24 0.03 92 1016.7
20210612152705 60 250 0.0 1.0 0.00 0.24 0.03 92 1016.7
20210612152611 60 250 0.0 1.0 0.00 0.24 0.03 92 1016.7
20210612152524 60 250 0.0 1.0 0.00 0.24 0.03 91 1016.6
20210612152409 60 250 0.0 1.0 0.00 0.24 0.03 91 1016.7
20210612152312 60 250 0.0 1.0 0.00 0.24 0.03 91 1016.6
20210612152202 60 250 0.0 1.0 0.00 0.24 0.03 93 1016.6
20210612152107 60 250 0.0 1.0 0.00 0.24 0.03 92 1016.7
20210612152019 60 250 0.0 1.0 0.00 0.24 0.03 92 1016.7
20210612151904 60 250 0.0 1.0 0.00 0.24 0.03 91 1016.6
20210612151808 60 250 0.0 1.0 0.00 0.24 0.03 91 1016.7
20210612151713 60 250 0.0 1.0 0.00 0.24 0.03 92 1016.7
20210612151603 60 250 0.0 1.0 0.00 0.24 0.03 92 1016.7
20210612151514 60 250 0.0 1.0 0.00 0.24 0.03 92 1016.6
20210612151419 60 250 0.0 1.0 0.00 0.24 0.03 93 1016.6
20210612151302 60 250 0.0 1.0 0.00 0.24 0.03 94 1016.6
20210612151207 60 250 0.0 0.0 0.00 0.24 0.03 94 1016.6
20210612151124 60 250 0.0 1.0 0.00 0.24 0.03 94 1016.5
20210612151001 60 250 0.0 1.0 0.00 0.24 0.03 95 1016.6
20210612150913 60 250 0.0 1.0 0.00 0.24 0.03 95 1016.6
20210612150817 60 250 0.0 1.0 0.00 0.24 0.03 95 1016.6
20210612150702 59 249 0.0 1.0 0.00 0.24 0.03 95 1016.6
20210612150608 59 249 0.0 1.0 0.00 0.24 0.03 95 1016.6
20210612150524 59 249 0.0 1.0 0.00 0.24 0.03 95 1016.6
20210612150409 59 249 0.0 1.0 0.00 0.24 0.03 95 1016.6
20210612150312 59 250 0.0 3.0 0.00 0.24 0.03 95 1016.6
20210612150216 58 250 0.0 3.0 0.00 0.24 0.03 96 1016.5
20210612150102 58 250 0.0 3.0 0.00 0.24 0.03 95 1016.6
20210612150018 58 249 0.0 3.0 0.00 0.24 0.03 96 1016.5
20210612145903 58 249 0.0 3.0 0.00 0.24 0.03 96 1016.6
20210612145808 58 249 0.0 3.0 0.00 0.24 0.03 96 1016.5
20210612145713 58 249 1.0 3.0 0.00 0.24 0.03 96 1016.5
20210612145559 57 250 1.0 3.0 0.00 0.24 0.03 96 1016.5
20210612145503 57 235 0.0 2.0 0.00 0.24 0.03 96 1016.5
20210612145420 57 47 0.0 1.0 0.00 0.24 0.03 96 1016.5
20210612145305 57 47 0.0 1.0 0.00 0.24 0.03 96 1016.4
20210612145209 57 47 0.0 1.0 0.00 0.24 0.03 96 1016.4
20210612145115 57 46 0.0 1.0 0.00 0.24 0.03 96 1016.5
20210612145000 57 47 0.0 1.0 0.00 0.24 0.03 96 1016.4
20210612144916 57 47 0.0 1.0 0.00 0.24 0.03 96 1016.5
20210612144801 57 67 0.0 1.0 0.00 0.24 0.03 96 1016.4
20210612144706 57 68 0.0 1.0 0.00 0.24 0.03 96 1016.4
20210612144611 57 68 0.0 1.0 0.00 0.24 0.03 96 1016.4
20210612144524 57 68 0.0 1.0 0.00 0.24 0.03 96 1016.4
20210612144409 57 73 0.0 1.0 0.00 0.24 0.03 96 1016.4
20210612144259 57 74 0.0 1.0 0.00 0.24 0.03 96 1016.4
20210612144204 57 74 0.0 1.0 0.00 0.24 0.03 96 1016.4
20210612144109 57 74 0.0 1.0 0.00 0.24 0.03 96 1016.4
20210612144015 57 72 0.0 1.0 0.00 0.24 0.03 96 1016.4
20210612143900 57 72 0.0 1.0 0.00 0.24 0.03 96 1016.3
20210612143817 57 72 0.0 1.0 0.00 0.24 0.03 96 1016.3
20210612143700 56 72 0.0 1.0 0.00 0.24 0.03 96 1016.3
20210612143606 56 72 0.0 1.0 0.00 0.24 0.03 96 1016.3
20210612143510 56 72 0.0 1.0 0.00 0.24 0.03 96 1016.2
20210612143422 56 72 0.0 1.0 0.00 0.24 0.03 96 1016.2
20210612143308 56 72 0.0 1.0 0.00 0.24 0.03 96 1016.3
20210612143214 56 72 0.0 1.0 0.00 0.24 0.03 96 1016.3
20210612143100 56 72 0.0 1.0 0.00 0.24 0.03 96 1016.2
20210612143006 56 72 0.0 1.0 0.00 0.24 0.03 96 1016.2
20210612142918 56 72 0.0 1.0 0.00 0.24 0.03 96 1016.2
20210612142803 56 67 0.0 0.0 0.00 0.24 0.03 96 1016.2
20210612142711 56 66 0.0 0.0 0.00 0.24 0.03 96 1016.2
20210612142616 56 67 0.0 0.0 0.00 0.24 0.03 96 1016.3
20210612142501 56 67 0.0 0.0 0.00 0.24 0.03 96 1016.3
20210612142414 56 67 0.0 0.0 0.00 0.24 0.03 96 1016.3
20210612142318 56 67 0.0 0.0 0.00 0.24 0.03 96 1016.3
20210612142200 56 67 0.0 0.0 0.00 0.24 0.03 96 1016.3
20210612142109 56 67 0.0 0.0 0.00 0.24 0.03 96 1016.2
20210612142015 56 65 0.0 0.0 0.00 0.24 0.03 96 1016.2
20210612141859 56 67 0.0 0.0 0.00 0.24 0.03 96 1016.2
20210612141811 56 67 0.0 0.0 0.00 0.24 0.03 96 1016.2
20210612141716 56 67 0.0 0.0 0.00 0.24 0.03 96 1016.2
20210612141605 55 67 0.0 0.0 0.00 0.24 0.03 96 1016.2
20210612141510 55 67 0.0 0.0 0.00 0.24 0.03 96 1016.2
20210612141423 55 67 0.0 0.0 0.00 0.24 0.03 96 1016.2
20210612141308 55 67 0.0 0.0 0.00 0.24 0.03 96 1016.2
20210612141213 55 67 0.0 0.0 0.00 0.24 0.03 96 1016.2
20210612141059 55 67 0.0 0.0 0.00 0.24 0.03 96 1016.2
20210612141008 55 67 0.0 0.0 0.00 0.24 0.03 96 1016.3
20210612140921 55 67 0.0 0.0 0.00 0.24 0.03 96 1016.3
20210612140759 55 66 0.0 0.0 0.00 0.24 0.03 96 1016.2
20210612140712 55 67 0.0 0.0 0.00 0.24 0.03 96 1016.2
20210612140617 55 67 0.0 0.0 0.00 0.24 0.03 96 1016.2
20210612140506 55 67 0.0 0.0 0.00 0.24 0.03 96 1016.2
20210612140412 55 65 0.0 0.0 0.00 0.24 0.03 96 1016.2
20210612140325 55 65 0.0 0.0 0.00 0.24 0.03 96 1016.2
20210612140210 55 65 0.0 0.0 0.00 0.24 0.03 96 1016.1
20210612140114 55 65 0.0 0.0 0.00 0.24 0.03 96 1016.1
20210612135959 55 65 0.0 0.0 0.00 0.24 0.03 96 1016.1
20210612135908 54 65 0.0 0.0 0.00 0.24 0.03 96 1016.1
20210612135820 54 65 0.0 0.0 0.00 0.24 0.03 96 1016.1
20210612135706 54 65 0.0 0.0 0.00 0.24 0.03 96 1016.0
20210612135610 54 65 0.0 0.0 0.00 0.24 0.03 96 1016.0
20210612135515 54 65 0.0 0.0 0.00 0.24 0.03 96 1016.0
20210612135405 54 65 0.0 0.0 0.00 0.24 0.03 96 1016.0
20210612135317 54 65 0.0 0.0 0.00 0.24 0.03 96 1016.0
20210612135222 54 65 0.0 0.0 0.00 0.24 0.03 96 1016.1
20210612135107 54 65 0.0 0.0 0.00 0.24 0.03 96 1016.1
20210612135013 54 65 0.0 0.0 0.00 0.24 0.03 96 1016.1
20210612134918 54 65 0.0 0.0 0.00 0.24 0.03 96 1016.1
20210612134807 53 65 0.0 0.0 0.00 0.24 0.03 96 1016.1
20210612134720 53 65 0.0 0.0 0.00 0.24 0.03 96 1016.1
20210612134605 53 65 0.0 0.0 0.00 0.24 0.03 96 1016.0
20210612134510 53 65 0.0 0.0 0.00 0.24 0.03 96 1016.0
20210612134416 53 65 0.0 0.0 0.00 0.24 0.03 96 1015.9
20210612134306 53 65 0.0 0.0 0.00 0.24 0.03 96 1016.0
20210612134218 53 65 0.0 0.0 0.00 0.24 0.03 96 1016.0
20210612134103 53 65 0.0 0.0 0.00 0.24 0.03 96 1015.9
20210612134006 53 65 0.0 0.0 0.00 0.24 0.03 96 1016.0
20210612133912 53 65 0.0 0.0 0.00 0.24 0.03 96 1015.9
20210612133825 52 65 0.0 0.0 0.00 0.24 0.03 96 1016.0
20210612133714 52 65 0.0 0.0 0.00 0.24 0.03 96 1015.9
20210612133619 52 65 0.0 0.0 0.00 0.24 0.03 96 1015.9
20210612133504 52 65 0.0 0.0 0.00 0.24 0.03 96 1016.0
20210612133409 52 65 0.0 0.0 0.00 0.24 0.03 96 1016.0
20210612133315 52 65 0.0 0.0 0.00 0.24 0.03 95 1016.0
20210612133204 52 65 0.0 0.0 0.00 0.24 0.03 95 1016.0
20210612133117 52 65 0.0 0.0 0.00 0.24 0.03 95 1016.0
20210612133002 52 65 0.0 0.0 0.00 0.24 0.03 95 1016.1
20210612132907 52 65 0.0 0.0 0.00 0.24 0.03 95 1016.0
20210612132810 51 65 0.0 0.0 0.00 0.24 0.03 95 1016.0
20210612132722 51 65 0.0 0.0 0.00 0.24 0.03 95 1016.0
20210612132612 51 65 0.0 0.0 0.01 0.24 0.03 95 1016.0
20210612132517 51 65 0.0 0.0 0.01 0.24 0.03 95 1016.0
20210612132402 51 65 0.0 0.0 0.01 0.24 0.03 95 1016.0
20210612132307 51 65 0.0 0.0 0.01 0.24 0.03 95 1016.0
20210612132220 51 65 0.0 0.0 0.01 0.24 0.03 95 1016.1
20210612132109 51 65 0.0 0.0 0.01 0.24 0.03 95 1016.1
20210612132015 51 65 0.0 0.0 0.01 0.24 0.03 95 1016.1
20210612131900 51 65 0.0 0.0 0.01 0.24 0.03 95 1016.0
20210612131805 51 65 0.0 0.0 0.01 0.24 0.03 95 1016.1
20210612131710 51 65 0.0 0.0 0.01 0.24 0.03 95 1016.0
20210612131622 51 65 0.0 0.0 0.01 0.24 0.03 95 1016.0
20210612131512 51 65 0.0 0.0 0.01 0.24 0.03 95 1016.0
20210612131415 51 65 0.0 0.0 0.01 0.24 0.03 95 1016.0
20210612131301 51 65 0.0 0.0 0.01 0.24 0.03 95 1015.9
20210612131206 51 65 0.0 0.0 0.01 0.24 0.03 95 1015.9
20210612131119 51 65 0.0 0.0 0.01 0.24 0.03 95 1016.0
20210612131008 51 65 0.0 0.0 0.01 0.24 0.03 95 1015.9
20210612130913 52 65 0.0 0.0 0.01 0.24 0.03 95 1015.9
20210612130758 52 65 0.0 0.0 0.01 0.24 0.03 95 1015.9
20210612130704 52 65 0.0 0.0 0.01 0.24 0.03 95 1015.9
20210612130616 52 65 0.0 0.0 0.01 0.24 0.03 95 1015.9
20210612130521 52 65 0.0 0.0 0.01 0.24 0.03 95 1015.8
20210612130411 51 65 0.0 0.0 0.01 0.24 0.03 95 1015.9
20210612130316 51 65 0.0 0.0 0.01 0.24 0.03 95 1015.8
20210612130201 51 65 0.0 0.0 0.01 0.24 0.03 95 1015.8
20210612130107 51 65 0.0 0.0 0.01 0.24 0.03 95 1015.9
20210612130018 51 65 0.0 0.0 0.01 0.24 0.03 95 1015.9
20210612125908 51 65 0.0 0.0 0.01 0.24 0.03 95 1015.9
20210612125813 51 65 0.0 0.0 0.01 0.24 0.03 95 1015.9
20210612125658 51 65 0.0 0.0 0.01 0.24 0.03 95 1015.8
20210612125604 51 65 0.0 0.0 0.01 0.24 0.03 95 1015.8
20210612125517 51 65 0.0 0.0 0.01 0.24 0.03 95 1015.8
20210612125402 51 65 0.0 0.0 0.01 0.24 0.03 95 1015.9
20210612125310 51 65 0.0 0.0 0.01 0.24 0.03 95 1015.9
20210612125216 50 65 0.0 0.0 0.01 0.24 0.03 95 1015.9
20210612125101 50 65 0.0 0.0 0.01 0.24 0.03 95 1015.8
20210612125013 50 65 0.0 0.0 0.01 0.24 0.03 95 1015.8
20210612124918 51 65 0.0 1.0 0.01 0.24 0.03 95 1015.8
20210612124806 51 65 0.0 1.0 0.01 0.24 0.03 95 1015.8
20210612124711 51 65 0.0 1.0 0.01 0.24 0.03 95 1015.8
20210612124625 51 65 0.0 1.0 0.01 0.24 0.03 95 1015.8
20210612124502 51 65 0.0 1.0 0.01 0.24 0.03 95 1015.8
20210612124414 51 65 0.0 1.0 0.01 0.24 0.03 95 1015.8
20210612124318 51 65 0.0 1.0 0.01 0.24 0.03 95 1015.8
20210612124208 51 65 0.0 1.0 0.01 0.24 0.03 95 1015.9
20210612124113 51 65 0.0 1.0 0.01 0.24 0.03 95 1015.8
20210612123958 51 65 0.0 0.0 0.01 0.24 0.03 95 1015.8
20210612123911 51 65 0.0 0.0 0.01 0.24 0.03 95 1015.8
20210612123816 51 65 0.0 0.0 0.01 0.24 0.03 95 1015.8
20210612123705 51 65 0.0 0.0 0.01 0.24 0.03 95 1015.8
20210612123611 51 65 0.0 0.0 0.01 0.24 0.03 95 1015.8
20210612123523 51 65 0.0 0.0 0.01 0.24 0.03 95 1015.8
20210612123409 51 65 0.0 0.0 0.01 0.24 0.03 95 1015.8
20210612123314 51 65 0.0 0.0 0.01 0.24 0.03 95 1015.8
20210612123159 51 65 0.0 0.0 0.01 0.24 0.03 95 1015.8
20210612123108 51 65 0.0 0.0 0.01 0.24 0.03 95 1015.8
20210612123021 51 65 0.0 0.0 0.01 0.24 0.03 95 1015.8
20210612122925 51 65 0.0 0.0 0.01 0.24 0.03 95 1015.9
20210612122810 51 65 0.0 0.0 0.01 0.24 0.03 95 1015.8
20210612122716 51 65 0.0 0.0 0.01 0.24 0.03 95 1015.8
20210612122605 51 65 0.0 0.0 0.00 0.23 0.02 95 1015.8
20210612122510 51 65 0.0 0.0 0.00 0.23 0.02 95 1015.8
20210612122423 51 65 0.0 0.0 0.00 0.23 0.02 95 1015.8
20210612122308 51 65 0.0 0.0 0.00 0.23 0.02 95 1015.8
20210612122210 51 65 0.0 0.0 0.00 0.23 0.02 95 1015.8
20210612122116 51 65 0.0 0.0 0.00 0.23 0.02 95 1015.8
20210612122005 52 65 0.0 0.0 0.00 0.23 0.02 95 1015.8
20210612121918 52 65 0.0 0.0 0.00 0.23 0.02 95 1015.8
20210612121803 52 65 0.0 0.0 0.00 0.23 0.02 95 1015.8
20210612121708 52 65 0.0 0.0 0.00 0.23 0.02 95 1015.8
20210612121614 52 65 0.0 0.0 0.00 0.23 0.02 95 1015.8
20210612121503 52 65 0.0 0.0 0.00 0.23 0.02 95 1015.8
20210612121416 52 65 0.0 0.0 0.00 0.23 0.02 95 1015.7
20210612121320 52 65 0.0 0.0 0.00 0.23 0.02 95 1015.7
20210612121205 52 65 0.0 0.0 0.00 0.23 0.02 95 1015.7
20210612121111 52 65 0.0 0.0 0.00 0.23 0.02 95 1015.7
20210612121016 52 65 0.0 0.0 0.00 0.23 0.02 95 1015.7
20210612120906 53 65 0.0 0.0 0.00 0.23 0.02 95 1015.7
20210612120819 53 65 0.0 0.0 0.00 0.23 0.02 95 1015.6
20210612120703 53 65 0.0 0.0 0.00 0.23 0.02 95 1015.6
20210612120609 53 65 0.0 0.0 0.00 0.23 0.02 95 1015.6
20210612120514 53 65 0.0 0.0 0.00 0.23 0.02 95 1015.5
20210612120404 53 65 0.0 0.0 0.00 0.23 0.02 95 1015.6
20210612120316 53 65 0.0 0.0 0.00 0.23 0.02 95 1015.6
20210612120201 53 65 0.0 0.0 0.00 0.23 0.02 95 1015.5
20210612120106 53 65 0.0 0.0 0.00 0.23 0.02 95 1015.6
20210612120011 53 65 0.0 0.0 0.00 0.23 0.02 95 1015.6
20210612115916 53 65 0.0 0.0 0.00 0.23 0.02 95 1015.6
20210612115814 53 65 0.0 0.0 0.00 0.23 0.02 95 1015.6
20210612115718 53 65 0.0 0.0 0.00 0.23 0.02 95 1015.6
20210612115601 54 65 0.0 0.0 0.00 0.23 0.02 95 1015.6
20210612115506 54 65 0.0 0.0 0.00 0.23 0.02 95 1015.6
20210612115412 54 65 0.0 0.0 0.00 0.23 0.02 95 1015.6
20210612115301 54 65 0.0 0.0 0.00 0.23 0.02 95 1015.6
20210612115214 54 65 0.0 0.0 0.00 0.23 0.02 95 1015.7
20210612115118 54 65 0.0 0.0 0.00 0.23 0.02 95 1015.6
20210612115003 54 65 0.0 0.0 0.00 0.23 0.02 95 1015.7
20210612114908 54 65 0.0 0.0 0.00 0.23 0.02 95 1015.7
20210612114821 54 65 0.0 0.0 0.00 0.23 0.02 95 1015.7
20210612114710 54 65 0.0 0.0 0.00 0.23 0.02 95 1015.7
20210612114615 54 65 0.0 0.0 0.00 0.23 0.02 95 1015.8
20210612114500 54 65 0.0 0.0 0.00 0.23 0.02 95 1015.8
20210612114405 54 65 0.0 0.0 0.00 0.23 0.02 95 1015.8
20210612114311 54 65 0.0 0.0 0.00 0.23 0.02 95 1015.8
20210612114208 54 65 0.0 0.0 0.00 0.23 0.02 95 1015.8
20210612114113 54 65 0.0 0.0 0.00 0.23 0.02 95 1015.8
20210612113958 54 65 0.0 0.0 0.00 0.23 0.02 95 1015.8
20210612113904 54 65 0.0 0.0 0.00 0.23 0.02 95 1015.9
20210612113809 54 65 0.0 0.0 0.00 0.23 0.02 95 1015.8
20210612113722 54 65 0.0 0.0 0.00 0.23 0.02 95 1015.9
20210612113611 54 65 0.0 0.0 0.00 0.23 0.02 95 1015.8
20210612113514 54 65 0.0 0.0 0.00 0.23 0.02 95 1015.8
20210612113400 54 65 0.0 0.0 0.00 0.23 0.02 95 1015.8
20210612113305 54 65 0.0 0.0 0.00 0.23 0.02 95 1015.8
20210612113218 54 65 0.0 0.0 0.00 0.23 0.02 95 1015.8
20210612113107 54 65 0.0 0.0 0.00 0.23 0.02 95 1015.8
20210612113012 54 65 0.0 0.0 0.00 0.23 0.02 95 1015.7
20210612112917 54 65 0.0 0.0 0.00 0.23 0.02 95 1015.8
20210612112802 54 65 0.0 0.0 0.00 0.23 0.02 95 1015.8
20210612112708 54 65 0.0 0.0 0.00 0.23 0.02 95 1015.8
20210612112516 54 65 0.0 0.0 0.00 0.23 0.02 95 1015.8
20210612112401 54 65 0.0 0.0 0.00 0.23 0.02 95 1015.7
20210612112306 54 65 0.0 0.0 0.00 0.23 0.02 95 1015.8
20210612112212 55 65 0.0 0.0 0.00 0.23 0.02 95 1015.8
20210612112124 55 65 0.0 0.0 0.00 0.23 0.02 95 1015.8
20210612112013 55 65 0.0 0.0 0.00 0.23 0.02 95 1015.8
20210612111859 55 65 0.0 0.0 0.00 0.23 0.02 95 1015.8
20210612111804 55 65 0.0 0.0 0.00 0.23 0.02 95 1015.8
20210612111709 55 65 0.0 0.0 0.00 0.23 0.02 95 1015.8
20210612111621 55 65 0.0 0.0 0.00 0.23 0.02 95 1015.8
20210612111459 55 65 0.0 0.0 0.00 0.23 0.02 95 1015.7
20210612111416 55 65 0.0 0.0 0.00 0.23 0.02 95 1015.8
20210612111301 55 65 0.0 1.0 0.00 0.23 0.02 95 1015.8
20210612111207 55 65 0.0 1.0 0.00 0.23 0.02 95 1015.8
20210612111112 55 65 0.0 1.0 0.00 0.23 0.02 95 1015.8
20210612111025 55 65 0.0 1.0 0.00 0.23 0.02 95 1015.8
20210612110914 55 65 0.0 1.0 0.00 0.23 0.02 95 1015.8
20210612110758 55 65 0.0 1.0 0.00 0.23 0.02 95 1015.8
20210612110704 55 65 0.0 1.0 0.00 0.23 0.02 95 1015.8
20210612110609 55 65 0.0 1.0 0.00 0.23 0.02 95 1015.8
20210612110522 55 65 0.0 1.0 0.00 0.23 0.02 95 1015.8
20210612110407 55 65 0.0 1.0 0.00 0.23 0.02 95 1015.8
20210612110317 55 65 0.0 1.0 0.00 0.23 0.02 95 1015.8
20210612110202 55 65 0.0 1.0 0.00 0.23 0.02 95 1015.8
20210612110107 55 65 0.0 1.0 0.00 0.23 0.02 95 1015.9
20210612110019 55 65 0.0 1.0 0.00 0.23 0.02 95 1015.8
20210612105905 55 65 0.0 1.0 0.00 0.23 0.02 95 1015.8
20210612105814 55 65 0.0 1.0 0.00 0.23 0.02 95 1015.8
20210612105659 55 65 0.0 1.0 0.00 0.23 0.02 95 1015.8
20210612105604 55 65 0.0 0.0 0.00 0.23 0.02 95 1015.8
20210612105510 55 65 0.0 0.0 0.00 0.23 0.02 95 1015.8
20210612105422 55 65 0.0 0.0 0.00 0.23 0.02 95 1015.8
20210612105307 55 65 0.0 0.0 0.00 0.23 0.02 95 1015.8
20210612105216 55 65 0.0 0.0 0.00 0.23 0.02 95 1015.7
20210612105102 55 65 0.0 0.0 0.00 0.23 0.02 95 1015.7
20210612105007 55 65 0.0 0.0 0.00 0.23 0.02 95 1015.7
20210612104920 55 65 0.0 0.0 0.00 0.23 0.02 95 1015.7
20210612104805 55 65 0.0 0.0 0.00 0.23 0.02 95 1015.7
20210612104714 55 65 0.0 0.0 0.00 0.23 0.02 95 1015.6
20210612104600 55 65 0.0 0.0 0.00 0.23 0.02 95 1015.6
20210612104505 55 65 0.0 0.0 0.00 0.23 0.02 95 1015.6
20210612104418 55 65 0.0 0.0 0.00 0.23 0.02 95 1015.6
20210612104323 55 65 0.0 0.0 0.00 0.23 0.02 95 1015.6
20210612104208 55 65 0.0 0.0 0.00 0.23 0.02 95 1015.6
20210612104117 54 65 0.0 0.0 0.00 0.23 0.02 95 1015.6
20210612104002 55 65 0.0 0.0 0.00 0.23 0.02 95 1015.6
20210612103907 55 65 0.0 0.0 0.00 0.23 0.02 95 1015.6
20210612103820 54 65 0.0 0.0 0.00 0.23 0.02 95 1015.6
20210612103705 54 65 0.0 0.0 0.00 0.23 0.02 95 1015.6
20210612103614 54 65 0.0 0.0 0.00 0.23 0.02 95 1015.6
20210612103500 54 65 0.0 0.0 0.00 0.23 0.02 95 1015.6
20210612103405 54 65 0.0 0.0 0.00 0.23 0.02 95 1015.7
20210612103318 54 65 0.0 0.0 0.00 0.23 0.02 95 1015.6
20210612103203 54 65 0.0 0.0 0.00 0.23 0.02 95 1015.6
20210612103107 54 65 0.0 0.0 0.00 0.23 0.02 95 1015.7
20210612103016 54 65 0.0 0.0 0.00 0.23 0.02 95 1015.7
20210612102901 54 65 0.0 0.0 0.00 0.23 0.02 95 1015.7
20210612102813 54 65 0.0 0.0 0.00 0.23 0.02 95 1015.6
20210612102718 54 65 0.0 0.0 0.00 0.23 0.02 95 1015.6
20210612102600 54 65 0.0 0.0 0.00 0.23 0.02 95 1015.6
20210612102510 54 65 0.0 0.0 0.00 0.23 0.02 95 1015.6
20210612102415 54 65 0.0 0.0 0.00 0.23 0.02 95 1015.6
20210612102300 54 65 0.0 0.0 0.00 0.23 0.02 95 1015.6
20210612102213 54 65 0.0 0.0 0.00 0.23 0.02 95 1015.6
20210612102118 54 65 0.0 0.0 0.00 0.23 0.02 95 1015.6
20210612102003 54 65 0.0 0.0 0.00 0.23 0.02 95 1015.5
20210612101912 54 65 0.0 0.0 0.00 0.23 0.02 95 1015.6
20210612101825 54 65 0.0 0.0 0.00 0.23 0.02 95 1015.5
20210612101710 54 65 0.0 0.0 0.00 0.23 0.02 95 1015.5
20210612101616 54 65 0.0 0.0 0.00 0.23 0.02 95 1015.5
20210612101501 54 65 0.0 0.0 0.00 0.23 0.02 95 1015.4
20210612101411 54 65 0.0 0.0 0.00 0.23 0.02 95 1015.4
20210612101323 54 65 0.0 0.0 0.00 0.23 0.02 95 1015.5
20210612101208 54 65 0.0 0.0 0.00 0.23 0.02 95 1015.5
20210612101114 54 65 0.0 0.0 0.00 0.23 0.02 95 1015.5
20210612100959 54 65 0.0 0.0 0.00 0.23 0.02 95 1015.5
20210612100905 54 65 0.0 0.0 0.00 0.23 0.02 95 1015.5
20210612100814 54 65 0.0 0.0 0.00 0.23 0.02 95 1015.4
20210612100659 54 65 0.0 0.0 0.00 0.23 0.02 95 1015.4
20210612100611 54 65 0.0 0.0 0.00 0.23 0.02 95 1015.5
20210612100515 54 65 0.0 0.0 0.00 0.23 0.02 95 1015.5
20210612100400 54 65 0.0 0.0 0.00 0.23 0.02 95 1015.4
20210612100310 54 65 0.0 0.0 0.00 0.23 0.02 95 1015.5
20210612100222 54 65 0.0 0.0 0.00 0.23 0.02 95 1015.5
20210612100107 54 65 0.0 0.0 0.00 0.23 0.02 95 1015.5
20210612100011 54 65 0.0 0.0 0.00 0.23 0.02 95 1015.4
20210612095917 54 65 0.0 0.0 0.00 0.23 0.02 95 1015.4
20210612095801 54 65 0.0 0.0 0.00 0.23 0.02 95 1015.4
20210612095718 54 65 0.0 0.0 0.00 0.23 0.02 95 1015.4
20210612095603 54 65 0.0 0.0 0.00 0.23 0.02 95 1015.4
20210612095509 54 65 0.0 0.0 0.00 0.23 0.02 95 1015.3
20210612095414 54 65 0.0 0.0 0.00 0.23 0.02 95 1015.4
20210612095259 54 65 0.0 0.0 0.00 0.23 0.02 95 1015.3
20210612095217 54 65 0.0 0.0 0.00 0.23 0.02 95 1015.4
20210612095121 54 65 0.0 0.0 0.00 0.23 0.02 95 1015.4
20210612095006 54 65 0.0 0.0 0.00 0.23 0.02 95 1015.3
20210612094912 54 65 0.0 0.0 0.00 0.23 0.02 95 1015.3
20210612094817 54 65 0.0 0.0 0.00 0.23 0.02 95 1015.4
20210612094703 54 65 0.0 1.0 0.00 0.23 0.02 95 1015.4
20210612094619 54 65 0.0 1.0 0.00 0.23 0.02 95 1015.3
20210612094504 54 65 0.0 1.0 0.00 0.23 0.02 95 1015.3
20210612094410 54 65 0.0 1.0 0.00 0.23 0.02 95 1015.4
20210612094315 54 65 0.0 1.0 0.00 0.23 0.02 95 1015.4
20210612094201 54 65 0.0 1.0 0.00 0.23 0.02 95 1015.4
20210612094117 54 65 0.0 1.0 0.00 0.23 0.02 95 1015.3
20210612094002 54 65 0.0 1.0 0.00 0.23 0.02 95 1015.4
20210612093907 54 65 0.0 1.0 0.00 0.23 0.02 95 1015.4
20210612093809 54 65 0.0 0.0 0.00 0.23 0.02 95 1015.4
20210612093714 54 65 0.0 1.0 0.00 0.23 0.02 95 1015.4
20210612093600 54 65 0.0 1.0 0.00 0.23 0.02 95 1015.3
20210612093517 54 65 0.0 1.0 0.00 0.23 0.02 95 1015.3
20210612093402 54 65 0.0 1.0 0.00 0.23 0.02 95 1015.3
20210612093307 54 65 0.0 1.0 0.00 0.23 0.02 95 1015.3
20210612093212 54 65 0.0 1.0 0.00 0.23 0.02 95 1015.2
20210612093125 54 65 0.0 1.0 0.00 0.23 0.02 95 1015.3
20210612093014 54 65 0.0 1.0 0.00 0.23 0.02 95 1015.3
20210612092859 54 65 0.0 1.0 0.00 0.23 0.02 95 1015.3
20210612092805 54 65 0.0 0.0 0.00 0.23 0.02 95 1015.3
20210612092710 54 65 0.0 0.0 0.00 0.23 0.02 95 1015.2
20210612092623 54 65 0.0 0.0 0.00 0.23 0.02 95 1015.2
20210612092509 54 65 0.0 0.0 0.00 0.23 0.02 95 1015.2
20210612092418 54 65 0.0 0.0 0.00 0.23 0.02 95 1015.2
20210612092305 54 65 0.0 0.0 0.00 0.23 0.02 95 1015.2
20210612092209 54 65 0.0 0.0 0.00 0.23 0.02 95 1015.2
20210612092122 54 65 0.0 0.0 0.00 0.23 0.02 95 1015.2
20210612091959 54 65 0.0 0.0 0.00 0.23 0.02 95 1015.2
20210612091915 54 65 0.0 0.0 0.00 0.23 0.02 95 1015.2
20210612091800 54 65 0.0 0.0 0.00 0.23 0.02 95 1015.1
20210612091705 55 65 0.0 0.0 0.00 0.23 0.02 95 1015.1
20210612091610 55 65 0.0 0.0 0.00 0.23 0.02 95 1015.1
20210612091523 55 65 0.0 0.0 0.00 0.23 0.02 95 1015.1
20210612091408 55 65 0.0 0.0 0.00 0.23 0.02 95 1015.1
20210612091318 55 65 0.0 0.0 0.00 0.23 0.02 95 1015.1
20210612091203 55 65 0.0 0.0 0.00 0.23 0.02 95 1015.2
20210612091109 55 65 0.0 0.0 0.00 0.23 0.02 95 1015.2
20210612091022 55 65 0.0 0.0 0.00 0.23 0.02 95 1015.2
20210612090907 55 65 0.0 0.0 0.00 0.23 0.02 95 1015.2
20210612090816 55 65 0.0 0.0 0.00 0.23 0.02 95 1015.2
20210612090700 55 65 0.0 0.0 0.00 0.23 0.02 95 1015.2
20210612090606 55 65 0.0 0.0 0.00 0.23 0.02 95 1015.2
20210612090511 55 65 0.0 1.0 0.00 0.23 0.02 95 1015.2
20210612090424 55 65 0.0 1.0 0.00 0.23 0.02 95 1015.2
20210612090309 55 65 0.0 1.0 0.00 0.23 0.02 95 1015.2
20210612090218 55 65 0.0 1.0 0.00 0.23 0.02 95 1015.1
20210612090104 55 65 0.0 1.0 0.00 0.23 0.02 95 1015.2
20210612090009 55 65 0.0 1.0 0.00 0.23 0.02 95 1015.2
20210612085921 55 65 0.0 1.0 0.00 0.23 0.02 95 1015.2
20210612085807 55 65 0.0 1.0 0.00 0.23 0.02 95 1015.1
20210612085713 55 65 0.0 1.0 0.00 0.23 0.02 95 1015.1
20210612085558 55 330 0.0 1.0 0.00 0.23 0.02 95 1015.0
20210612085504 55 49 0.0 1.0 0.00 0.23 0.02 95 1015.0
20210612085416 55 50 0.0 1.0 0.00 0.23 0.02 95 1015.1
20210612085301 55 50 0.0 1.0 0.00 0.23 0.02 95 1015.1
20210612085206 55 50 0.0 1.0 0.00 0.23 0.02 95 1015.1
20210612085115 55 50 0.0 1.0 0.01 0.23 0.02 95 1015.2
20210612085000 55 49 0.0 0.0 0.01 0.23 0.02 95 1015.2
20210612084905 55 49 0.0 0.0 0.01 0.23 0.02 95 1015.2
20210612084818 55 49 0.0 0.0 0.01 0.23 0.02 95 1015.2
20210612084703 55 50 0.0 0.0 0.01 0.23 0.02 95 1015.2
20210612084612 55 50 0.0 0.0 0.01 0.23 0.02 95 1015.2
20210612084517 55 49 0.0 0.0 0.01 0.23 0.02 95 1015.3
20210612084410 55 50 0.0 1.0 0.01 0.23 0.02 95 1015.2
20210612084322 55 50 0.0 1.0 0.01 0.23 0.02 95 1015.2
20210612084207 55 49 0.0 1.0 0.01 0.23 0.02 95 1015.2
20210612084111 55 50 0.0 1.0 0.01 0.23 0.02 95 1015.2
20210612084000 55 50 0.0 1.0 0.01 0.23 0.02 95 1015.2
20210612083905 55 50 0.0 1.0 0.01 0.23 0.02 95 1015.2
20210612083818 55 50 0.0 1.0 0.01 0.23 0.02 95 1015.2
20210612083703 55 49 0.0 1.0 0.01 0.23 0.02 95 1015.3
20210612083609 55 49 0.0 1.0 0.01 0.23 0.02 95 1015.3
20210612083518 55 49 0.0 0.0 0.01 0.23 0.02 95 1015.3
20210612083403 55 50 0.0 0.0 0.01 0.23 0.02 95 1015.3
20210612083308 55 50 0.0 0.0 0.01 0.23 0.02 95 1015.3
20210612083221 55 50 0.0 0.0 0.01 0.23 0.02 95 1015.3
20210612083106 55 50 0.0 0.0 0.01 0.23 0.02 95 1015.3
20210612083011 55 50 0.0 0.0 0.01 0.23 0.02 95 1015.3
20210612082859 55 50 0.0 0.0 0.01 0.23 0.02 95 1015.3
20210612082805 55 50 0.0 0.0 0.01 0.23 0.02 95 1015.3
20210612082717 55 49 0.0 0.0 0.01 0.23 0.02 95 1015.3
20210612082602 55 49 0.0 0.0 0.01 0.23 0.02 95 1015.3
20210612082508 55 50 0.0 0.0 0.01 0.23 0.02 95 1015.3
20210612082418 55 50 0.0 0.0 0.01 0.23 0.02 95 1015.3
20210612082305 55 50 0.0 1.0 0.01 0.23 0.02 95 1015.3
20210612082215 55 50 0.0 1.0 0.01 0.23 0.02 95 1015.3
20210612082100 55 50 0.0 1.0 0.01 0.23 0.02 95 1015.3
20210612082003 55 49 0.0 1.0 0.01 0.23 0.02 95 1015.2
20210612081908 55 50 0.0 1.0 0.01 0.23 0.02 95 1015.2
20210612081825 56 49 0.0 1.0 0.01 0.23 0.02 95 1015.3
20210612081703 56 50 0.0 2.0 0.01 0.23 0.02 95 1015.2
20210612081616 56 49 0.0 2.0 0.01 0.23 0.02 95 1015.2
20210612081459 56 50 0.0 2.0 0.01 0.23 0.02 95 1015.2
20210612081405 56 50 0.0 2.0 0.01 0.23 0.02 95 1015.3
20210612081314 56 49 0.0 2.0 0.01 0.23 0.02 95 1015.2
20210612081159 56 49 0.0 2.0 0.01 0.23 0.02 95 1015.2
20210612081112 56 49 0.0 2.0 0.01 0.23 0.02 95 1015.3
20210612081016 56 49 0.0 2.0 0.01 0.23 0.02 95 1015.3
20210612080901 56 27 0.0 2.0 0.01 0.23 0.02 95 1015.3
20210612080807 56 47 0.0 1.0 0.01 0.23 0.02 95 1015.3
20210612080724 56 46 0.0 1.0 0.01 0.23 0.02 95 1015.3
20210612080609 56 48 0.0 0.0 0.01 0.23 0.02 95 1015.3
20210612080514 56 47 0.0 0.0 0.01 0.23 0.02 95 1015.2
20210612080359 56 47 0.0 0.0 0.01 0.23 0.02 95 1015.2
20210612080305 56 47 0.0 0.0 0.01 0.23 0.02 95 1015.1
20210612080221 56 48 0.0 1.0 0.02 0.23 0.02 95 1015.1
20210612080059 56 47 0.0 1.0 0.02 0.23 0.02 95 1015.2
20210612080011 56 47 0.0 1.0 0.02 0.23 0.02 95 1015.2
20210612075917 56 47 0.0 1.0 0.02 0.23 0.02 95 1015.1
20210612075802 56 47 0.0 1.0 0.02 0.23 0.02 95 1015.1
20210612075707 56 49 0.0 1.0 0.02 0.23 0.02 95 1015.2
20210612075624 56 47 0.0 1.0 0.02 0.23 0.02 95 1015.1
20210612075509 56 47 0.0 1.0 0.02 0.23 0.02 95 1015.1
20210612075415 56 47 0.0 1.0 0.02 0.23 0.02 95 1015.1
20210612075300 56 47 0.0 1.0 0.02 0.23 0.02 95 1015.0
20210612075206 56 47 0.0 1.0 0.02 0.23 0.02 95 1015.0
20210612075122 56 46 0.0 1.0 0.01 0.22 0.01 95 1015.1
20210612075007 56 47 0.0 1.0 0.01 0.22 0.01 95 1015.0
20210612074913 56 47 0.0 1.0 0.02 0.22 0.01 95 1015.1
20210612074818 56 47 0.0 1.0 0.02 0.22 0.01 95 1015.1
20210612074704 56 46 0.0 1.0 0.02 0.22 0.01 95 1015.1
20210612074609 56 47 0.0 1.0 0.02 0.22 0.01 95 1015.1
20210612074458 56 47 0.0 1.0 0.02 0.22 0.01 95 1015.1
20210612074411 56 47 0.0 1.0 0.02 0.22 0.01 95 1015.1
20210612074316 56 47 0.0 1.0 0.02 0.22 0.01 95 1015.1
20210612074201 56 47 0.0 1.0 0.02 0.22 0.01 95 1015.0
20210612074107 56 47 0.0 1.0 0.02 0.22 0.01 95 1015.1
20210612074023 56 47 0.0 1.0 0.02 0.22 0.01 95 1015.0
20210612073909 56 47 0.0 1.0 0.02 0.22 0.01 95 1015.0
20210612073814 56 47 0.0 1.0 0.02 0.22 0.01 95 1015.0
20210612073659 56 47 0.0 1.0 0.02 0.22 0.01 95 1015.1
20210612073605 56 39 0.0 1.0 0.02 0.22 0.01 95 1015.1
20210612073517 56 37 0.0 0.0 0.02 0.22 0.01 95 1015.0
20210612073406 56 37 0.0 0.0 0.02 0.22 0.01 95 1015.0
20210612073312 56 37 0.0 0.0 0.02 0.22 0.01 95 1015.0
20210612073217 56 37 0.0 1.0 0.02 0.22 0.01 95 1015.0
20210612073102 56 37 0.0 1.0 0.02 0.22 0.01 95 1015.0
20210612073008 56 37 0.0 1.0 0.02 0.22 0.01 95 1015.0
20210612072924 56 37 0.0 1.0 0.02 0.22 0.01 95 1014.9
20210612072810 56 37 0.0 1.0 0.02 0.22 0.01 95 1015.0
20210612072715 56 37 0.0 1.0 0.02 0.22 0.01 95 1015.0
20210612072600 56 37 0.0 1.0 0.03 0.22 0.01 95 1014.9
20210612072506 56 37 0.0 1.0 0.03 0.22 0.01 95 1015.0
20210612072418 56 37 0.0 1.0 0.03 0.22 0.01 95 1015.0
20210612072308 56 37 0.0 1.0 0.03 0.22 0.01 95 1015.0
20210612072212 56 53 0.0 1.0 0.03 0.22 0.01 95 1015.0
20210612072117 56 53 0.0 1.0 0.03 0.22 0.01 95 1015.0
20210612072003 56 54 0.0 1.0 0.04 0.22 0.01 95 1015.0
20210612071915 56 55 0.0 1.0 0.04 0.22 0.01 95 1015.0
20210612071805 56 56 0.0 1.0 0.04 0.22 0.01 95 1015.1
20210612071710 56 41 0.0 1.0 0.04 0.22 0.01 95 1015.1
20210612071616 56 25 0.0 1.0 0.04 0.22 0.01 95 1015.0
20210612071501 56 25 0.0 1.0 0.04 0.22 0.01 95 1015.1
20210612071406 56 24 0.0 1.0 0.04 0.22 0.01 95 1015.0
20210612071318 56 338 0.0 1.0 0.04 0.22 0.01 95 1015.1
20210612071207 56 57 0.0 1.0 0.05 0.22 0.01 95 1015.0
20210612071112 56 58 0.0 1.0 0.05 0.22 0.01 95 1015.1
20210612071018 56 58 0.0 1.0 0.05 0.22 0.01 95 1015.0
20210612070903 56 58 0.0 1.0 0.05 0.22 0.01 95 1015.0
20210612070816 56 58 0.0 1.0 0.05 0.22 0.01 95 1014.9
20210612070705 56 58 0.0 1.0 0.05 0.22 0.01 95 1014.9
20210612070610 56 58 0.0 1.0 0.05 0.22 0.01 95 1014.9
20210612070516 56 58 0.0 1.0 0.05 0.22 0.01 95 1014.9
20210612070401 56 58 0.0 1.0 0.06 0.22 0.01 95 1014.9
20210612070314 56 58 0.0 1.0 0.05 0.21 0.00 95 1014.9
20210612070203 56 58 0.0 1.0 0.05 0.21 0.00 95 1014.9
20210612070107 56 58 0.0 1.0 0.05 0.21 0.00 95 1014.9
20210612070013 56 58 0.0 1.0 0.05 0.21 0.00 95 1014.9
20210612065925 56 58 0.0 1.0 0.05 0.21 0.21 95 1014.9
20210612065804 56 58 0.0 1.0 0.05 0.21 0.21 95 1014.9
20210612065716 56 58 0.0 1.0 0.05 0.21 0.21 95 1014.9
20210612065605 56 58 0.0 1.0 0.05 0.21 0.21 95 1015.0
20210612065511 56 63 0.0 0.0 0.05 0.21 0.21 95 1014.9
20210612065415 56 64 0.0 0.0 0.05 0.21 0.21 95 1014.9
20210612065300 56 64 0.0 0.0 0.05 0.21 0.21 95 1014.9
20210612065213 56 64 0.0 0.0 0.05 0.21 0.21 95 1015.0
20210612065102 56 64 0.0 0.0 0.05 0.21 0.21 95 1014.9
20210612065008 56 64 0.0 1.0 0.04 0.20 0.20 95 1014.9
20210612064913 56 64 0.0 0.0 0.04 0.20 0.20 95 1014.9
20210612064758 56 64 0.0 0.0 0.04 0.20 0.20 95 1014.9
20210612064711 56 63 0.0 0.0 0.04 0.20 0.20 95 1014.9
20210612064616 56 64 0.0 0.0 0.04 0.20 0.20 95 1014.9
20210612064506 56 64 0.0 0.0 0.04 0.20 0.20 95 1014.9
20210612064411 56 63 0.0 0.0 0.04 0.20 0.20 95 1014.9
20210612064324 56 63 0.0 0.0 0.04 0.20 0.20 95 1014.9
20210612064201 56 65 0.0 0.0 0.04 0.20 0.20 95 1014.9
20210612064114 56 65 0.0 1.0 0.04 0.20 0.20 95 1014.9
20210612064001 56 65 0.0 1.0 0.04 0.20 0.20 95 1014.9
20210612063907 56 65 0.0 1.0 0.04 0.20 0.20 95 1014.9
20210612063813 56 65 0.0 1.0 0.04 0.20 0.20 95 1014.9
20210612063725 56 65 0.0 1.0 0.04 0.20 0.20 95 1014.9
20210612063610 56 65 0.0 1.0 0.04 0.20 0.20 95 1014.9
20210612063514 56 65 0.0 1.0 0.04 0.20 0.20 95 1014.9
20210612063404 56 65 0.0 1.0 0.04 0.20 0.20 95 1014.8
20210612063309 56 65 0.0 1.0 0.04 0.20 0.20 95 1014.8
20210612063222 56 53 0.0 0.0 0.04 0.20 0.20 95 1014.8
20210612063107 56 53 0.0 0.0 0.04 0.20 0.20 95 1014.8
20210612063013 56 54 0.0 0.0 0.04 0.20 0.20 95 1014.8
20210612062902 56 54 0.0 0.0 0.04 0.20 0.20 95 1014.8
20210612062807 56 53 0.0 0.0 0.04 0.20 0.20 95 1014.9
20210612062719 56 54 0.0 0.0 0.04 0.20 0.20 94 1014.8
20210612062605 56 53 0.0 0.0 0.03 0.19 0.19 94 1014.8
20210612062510 56 53 0.0 0.0 0.03 0.19 0.19 94 1014.8
20210612062415 56 54 0.0 0.0 0.03 0.19 0.19 94 1014.8
20210612062305 57 54 0.0 0.0 0.03 0.19 0.19 94 1014.8
20210612062210 57 53 0.0 0.0 0.03 0.19 0.19 94 1014.8
20210612062122 57 53 0.0 0.0 0.03 0.19 0.19 94 1014.9
20210612062007 57 46 0.0 1.0 0.02 0.18 0.18 94 1014.8
20210612061912 57 45 0.0 1.0 0.02 0.18 0.18 94 1014.8
20210612061801 57 44 0.0 1.0 0.02 0.18 0.18 94 1014.8
20210612061706 57 47 0.0 1.0 0.02 0.18 0.18 94 1014.8
20210612061619 57 47 0.0 1.0 0.02 0.18 0.18 94 1014.8
20210612061504 57 47 0.0 1.0 0.02 0.18 0.18 94 1014.8
20210612061409 57 47 0.0 1.0 0.02 0.18 0.18 94 1014.9
20210612061314 57 47 0.0 1.0 0.02 0.18 0.18 94 1014.9
20210612061203 57 47 0.0 1.0 0.01 0.17 0.17 94 1014.8
20210612061115 57 74 0.0 0.0 0.01 0.17 0.17 94 1014.8
20210612061020 57 74 0.0 0.0 0.02 0.17 0.17 94 1014.8
20210612060903 57 74 0.0 0.0 0.02 0.17 0.17 94 1014.8
20210612060809 57 73 0.0 0.0 0.02 0.17 0.17 94 1014.8
20210612060658 57 73 0.0 0.0 0.03 0.17 0.17 94 1014.8
20210612060603 57 74 0.0 0.0 0.04 0.17 0.17 94 1014.8
20210612060515 57 74 0.0 0.0 0.03 0.16 0.16 94 1014.8
20210612060401 57 73 0.0 0.0 0.03 0.16 0.16 94 1014.8
20210612060306 57 74 0.0 0.0 0.03 0.16 0.16 94 1014.8
20210612060211 57 74 0.0 0.0 0.04 0.16 0.16 94 1014.8
20210612060101 57 73 0.0 0.0 0.04 0.16 0.16 94 1014.8
20210612060013 57 74 0.0 1.0 0.04 0.16 0.16 94 1014.8
20210612055918 57 74 0.0 1.0 0.04 0.16 0.16 94 1014.8
20210612055803 57 73 0.0 1.0 0.04 0.16 0.16 94 1014.8
20210612055709 57 74 0.0 1.0 0.05 0.16 0.16 94 1014.8
20210612055621 57 73 0.0 1.0 0.05 0.16 0.16 94 1014.8
20210612055511 57 73 0.0 1.0 0.05 0.16 0.16 94 1014.8
20210612055416 57 74 0.0 1.0 0.05 0.16 0.16 94 1014.8
20210612055301 57 73 0.0 1.0 0.05 0.16 0.16 94 1014.8
20210612055207 57 73 0.0 1.0 0.05 0.16 0.16 94 1014.8
20210612055112 57 73 0.0 1.0 0.05 0.16 0.16 94 1014.8
20210612055001 57 73 0.0 1.0 0.05 0.16 0.16 94 1014.8
20210612054914 57 74 0.0 1.0 0.05 0.16 0.16 94 1014.8
20210612054818 57 74 0.0 1.0 0.05 0.16 0.16 94 1014.7
20210612054704 57 74 0.0 1.0 0.05 0.16 0.16 94 1014.7
20210612054609 57 74 0.0 1.0 0.05 0.16 0.16 94 1014.8
20210612054459 57 74 0.0 1.0 0.05 0.16 0.16 94 1014.8
20210612054411 57 73 0.0 1.0 0.05 0.16 0.16 94 1014.7
20210612054316 57 74 0.0 0.0 0.05 0.16 0.16 94 1014.8
20210612054202 57 74 0.0 0.0 0.05 0.16 0.16 94 1014.8
20210612054107 57 74 0.0 0.0 0.05 0.16 0.16 94 1014.7
20210612054019 57 74 0.0 0.0 0.05 0.16 0.16 94 1014.7
20210612053908 57 73 0.0 0.0 0.05 0.16 0.16 94 1014.8
20210612053814 57 74 0.0 1.0 0.05 0.16 0.16 94 1014.7
20210612053659 57 73 0.0 3.0 0.05 0.16 0.16 94 1014.7
20210612053604 57 73 0.0 3.0 0.05 0.16 0.16 94 1014.7
20210612053510 57 74 0.0 3.0 0.05 0.16 0.16 94 1014.7
20210612053359 57 74 0.0 3.0 0.05 0.16 0.16 94 1014.7
20210612053311 57 73 0.0 3.0 0.05 0.16 0.16 94 1014.8
20210612053216 57 74 0.0 3.0 0.05 0.16 0.16 94 1014.7
20210612053101 57 73 0.0 3.0 0.05 0.16 0.16 94 1014.7
20210612053007 57 74 1.0 3.0 0.05 0.16 0.16 94 1014.7
20210612052919 57 71 1.0 3.0 0.05 0.16 0.16 94 1014.7
20210612052809 57 97 0.0 3.0 0.05 0.16 0.16 94 1014.7
20210612052713 57 110 1.0 3.0 0.05 0.16 0.16 94 1014.7
20210612052618 57 62 0.0 3.0 0.05 0.16 0.16 94 1014.7
20210612052503 57 90 0.0 0.0 0.05 0.16 0.16 94 1014.7
20210612052415 57 90 0.0 0.0 0.05 0.16 0.16 94 1014.7
20210612052305 57 77 0.0 1.0 0.05 0.16 0.16 94 1014.7
20210612052210 57 76 0.0 1.0 0.05 0.16 0.16 94 1014.7
20210612052115 57 76 0.0 1.0 0.05 0.16 0.16 94 1014.7
20210612052001 57 76 0.0 1.0 0.05 0.16 0.16 94 1014.7
20210612051906 57 76 0.0 1.0 0.05 0.16 0.16 94 1014.7
20210612051819 57 76 0.0 1.0 0.05 0.16 0.16 94 1014.7
20210612051707 57 76 0.0 1.0 0.05 0.16 0.16 94 1014.7
20210612051613 57 77 0.0 1.0 0.05 0.16 0.16 94 1014.7
20210612051458 58 18 0.0 1.0 0.06 0.16 0.16 94 1014.6
20210612051404 58 68 0.0 1.0 0.06 0.16 0.16 94 1014.6
20210612051336 58 55 0.0 1.0 0.07 0.16 0.16 94 1014.7
20210612051308 58 65 0.0 1.0 0.07 0.16 0.16 94 1014.7
20210612051113 58 64 0.0 1.0 0.06 0.15 0.15 94 1014.7
20210612051018 58 39 0.0 1.0 0.06 0.15 0.15 94 1014.7
20210612050816 58 53 0.0 0.0 0.05 0.14 0.15 94 1014.6
20210612050701 58 51 0.0 0.0 0.05 0.14 0.14 94 1014.6
20210612050614 58 48 0.0 0.0 0.04 0.13 0.13 94 1014.6
20210612050502 58 49 0.0 0.0 0.04 0.13 0.13 94 1014.6
20210612050407 58 49 0.0 0.0 0.04 0.13 0.13 94 1014.6
20210612050311 58 48 0.0 1.0 0.04 0.13 0.13 94 1014.5
20210612050216 58 48 0.0 1.0 0.03 0.12 0.12 94 1014.5
20210612050102 58 49 0.0 1.0 0.03 0.12 0.12 94 1014.5
20210612050018 58 48 0.0 1.0 0.03 0.12 0.12 94 1014.5
20210612045903 58 49 0.0 1.0 0.03 0.12 0.12 94 1014.4
20210612045809 58 49 0.0 1.0 0.02 0.11 0.11 94 1014.4
20210612045714 58 48 0.0 1.0 0.02 0.11 0.11 94 1014.4
20210612045559 58 48 0.0 1.0 0.02 0.11 0.11 94 1014.4
20210612045511 58 49 0.0 1.0 0.02 0.11 0.11 94 1014.4
20210612045400 58 48 0.0 0.0 0.02 0.11 0.11 94 1014.4
20210612045306 58 48 0.0 0.0 0.02 0.11 0.11 94 1014.3
20210612045211 58 49 0.0 0.0 0.02 0.11 0.11 94 1014.3
20210612045124 58 48 0.0 0.0 0.02 0.11 0.11 94 1014.3
20210612045009 58 49 0.0 0.0 0.02 0.11 0.11 94 1014.4
20210612044917 58 48 0.0 1.0 0.02 0.11 0.11 94 1014.3
20210612044803 58 48 0.0 1.0 0.03 0.11 0.11 94 1014.3
20210612044708 58 48 0.0 1.0 0.03 0.11 0.11 94 1014.3
20210612044614 58 48 0.0 1.0 0.03 0.11 0.11 94 1014.3
20210612044459 58 48 0.0 1.0 0.03 0.11 0.11 94 1014.2
20210612044411 58 48 0.0 1.0 0.03 0.11 0.11 94 1014.2
20210612044301 58 48 0.0 1.0 0.03 0.11 0.11 94 1014.2
20210612044206 58 48 0.0 1.0 0.03 0.11 0.11 94 1014.2
20210612044112 58 48 0.0 1.0 0.03 0.11 0.11 94 1014.2
20210612044024 58 50 0.0 1.0 0.03 0.11 0.11 94 1014.2
20210612043909 58 33 0.0 1.0 0.03 0.11 0.11 94 1014.2
20210612043759 58 33 0.0 1.0 0.03 0.11 0.11 94 1014.2
20210612043704 58 32 0.0 1.0 0.03 0.11 0.11 94 1014.3
20210612043610 58 58 0.0 0.0 0.03 0.11 0.11 94 1014.2
20210612043522 58 58 0.0 0.0 0.03 0.11 0.11 94 1014.2
20210612043408 58 58 0.0 0.0 0.03 0.11 0.11 94 1014.1
20210612043312 58 58 0.0 0.0 0.03 0.11 0.11 94 1014.1
20210612043218 58 58 0.0 0.0 0.03 0.11 0.11 94 1014.1
20210612043103 58 58 0.0 0.0 0.03 0.11 0.11 93 1014.0
20210612043008 58 58 0.0 0.0 0.03 0.11 0.11 93 1014.0
20210612042921 58 58 0.0 0.0 0.03 0.11 0.11 93 1014.0
20210612042806 58 58 0.0 0.0 0.03 0.11 0.11 93 1014.0
20210612042716 58 58 0.0 0.0 0.03 0.11 0.11 93 1014.0
20210612042601 58 60 0.0 0.0 0.03 0.11 0.11 93 1014.0
20210612042506 58 58 0.0 0.0 0.03 0.11 0.11 93 1014.0
20210612042419 58 57 0.0 2.0 0.03 0.11 0.11 93 1014.0
20210612042306 58 57 0.0 2.0 0.03 0.11 0.11 93 1014.0
20210612042209 58 58 0.0 2.0 0.03 0.11 0.11 93 1014.0
20210612042118 58 58 0.0 2.0 0.03 0.11 0.11 93 1014.0
20210612042003 58 58 0.0 2.0 0.03 0.11 0.11 93 1014.0
20210612041916 58 58 0.0 2.0 0.03 0.11 0.11 93 1014.0
20210612041801 58 58 0.0 2.0 0.03 0.11 0.11 93 1014.0
20210612041704 58 58 1.0 2.0 0.03 0.11 0.11 93 1014.0
20210612041614 58 360 1.0 2.0 0.03 0.11 0.11 93 1014.0
20210612041459 58 27 0.0 1.0 0.02 0.10 0.10 93 1014.0
20210612041405 58 46 0.0 0.0 0.02 0.10 0.10 93 1014.0
20210612041317 58 46 0.0 0.0 0.01 0.09 0.09 93 1014.0
20210612041203 58 46 0.0 0.0 0.01 0.09 0.09 92 1014.0
20210612041108 58 46 0.0 0.0 0.01 0.09 0.09 92 1013.9
20210612041017 58 46 0.0 0.0 0.01 0.09 0.09 92 1014.0
20210612040903 58 46 0.0 1.0 0.01 0.09 0.09 92 1013.9
20210612040815 58 45 0.0 1.0 0.01 0.09 0.09 92 1013.9
20210612040700 58 46 0.0 1.0 0.01 0.09 0.09 92 1013.9
20210612040606 58 46 0.0 1.0 0.01 0.09 0.09 92 1013.8
20210612040515 58 45 0.0 1.0 0.01 0.09 0.09 92 1013.8
20210612040401 58 46 0.0 1.0 0.01 0.09 0.09 92 1013.8
20210612040313 58 46 0.0 1.0 0.01 0.09 0.09 92 1013.7
20210612040200 58 46 0.0 1.0 0.01 0.09 0.09 92 1013.7
20210612040104 58 46 0.0 1.0 0.01 0.09 0.09 92 1013.7
20210612040009 58 46 0.0 0.0 0.01 0.09 0.09 92 1013.7
20210612035858 58 45 0.0 0.0 0.01 0.09 0.09 91 1013.7
20210612035812 58 46 0.0 0.0 0.01 0.09 0.09 91 1013.7
20210612035716 58 46 0.0 0.0 0.01 0.09 0.09 91 1013.7
20210612035602 58 46 0.0 0.0 0.01 0.09 0.09 91 1013.8
20210612035507 58 45 0.0 0.0 0.01 0.09 0.09 91 1013.8
20210612035417 58 104 0.0 0.0 0.01 0.09 0.09 91 1013.7
20210612035305 58 104 0.0 0.0 0.01 0.09 0.09 91 1013.7
20210612035214 58 104 0.0 0.0 0.01 0.09 0.09 91 1013.7
20210612035100 58 104 0.0 0.0 0.01 0.09 0.09 91 1013.6
20210612035005 59 104 0.0 0.0 0.01 0.09 0.09 91 1013.6
20210612034911 58 104 0.0 0.0 0.01 0.09 0.09 91 1013.6
20210612034800 59 104 0.0 0.0 0.00 0.08 0.08 91 1013.6
20210612034713 59 104 0.0 0.0 0.00 0.08 0.08 91 1013.6
20210612034618 59 104 0.0 0.0 0.00 0.08 0.08 91 1013.7
20210612034503 59 104 0.0 0.0 0.00 0.08 0.08 91 1013.6
20210612034409 59 105 0.0 0.0 0.00 0.08 0.08 91 1013.6
20210612034325 59 104 0.0 0.0 0.00 0.08 0.08 91 1013.7
20210612034203 59 104 0.0 0.0 0.00 0.08 0.08 90 1013.7
20210612034116 59 104 0.0 0.0 0.00 0.08 0.08 90 1013.6
20210612034000 59 105 0.0 0.0 0.00 0.08 0.08 90 1013.6
20210612033906 59 104 0.0 0.0 0.00 0.08 0.08 90 1013.6
20210612033808 59 104 0.0 0.0 0.00 0.08 0.08 90 1013.5
20210612033725 59 104 0.0 0.0 0.00 0.08 0.08 90 1013.5
20210612033610 59 104 0.0 0.0 0.00 0.08 0.08 90 1013.5
20210612033515 59 104 0.0 0.0 0.00 0.08 0.08 90 1013.5
20210612033400 59 104 0.0 0.0 0.00 0.08 0.08 90 1013.4
20210612033305 59 105 0.0 0.0 0.00 0.08 0.08 90 1013.4
20210612033222 59 104 0.0 0.0 0.00 0.08 0.08 90 1013.4
20210612033107 59 104 0.0 0.0 0.00 0.08 0.08 89 1013.4
20210612033013 59 104 0.0 0.0 0.00 0.08 0.08 89 1013.3
20210612032918 59 104 0.0 0.0 0.00 0.08 0.08 89 1013.3
20210612032803 59 104 0.0 0.0 0.00 0.08 0.08 89 1013.3
20210612032709 59 104 0.0 0.0 0.00 0.08 0.08 89 1013.3
20210612032625 59 104 0.0 0.0 0.00 0.08 0.08 89 1013.3
20210612032510 59 105 0.0 0.0 0.00 0.08 0.08 89 1013.3
20210612032416 59 104 0.0 0.0 0.00 0.08 0.08 89 1013.3
20210612032301 59 104 0.0 0.0 0.00 0.08 0.08 89 1013.3
20210612032206 59 104 0.0 0.0 0.00 0.08 0.08 89 1013.3
20210612032123 59 105 0.0 0.0 0.00 0.08 0.08 89 1013.3
20210612032008 59 104 0.0 0.0 0.00 0.08 0.08 89 1013.2
20210612031912 59 105 0.0 0.0 0.00 0.08 0.08 88 1013.3
20210612031817 59 105 0.0 0.0 0.00 0.08 0.08 88 1013.3
20210612031702 59 105 0.0 0.0 0.00 0.08 0.08 88 1013.3
20210612031615 59 105 0.0 0.0 0.00 0.08 0.08 88 1013.3
20210612031504 60 104 0.0 0.0 0.00 0.08 0.08 88 1013.3
20210612031409 60 104 0.0 0.0 0.00 0.08 0.08 88 1013.3
20210612031314 60 105 0.0 0.0 0.00 0.08 0.08 88 1013.3
20210612031159 60 104 0.0 0.0 0.00 0.08 0.08 87 1013.2
20210612031104 60 104 0.0 0.0 0.00 0.08 0.08 87 1013.2
20210612031021 60 104 0.0 0.0 0.00 0.08 0.08 87 1013.1
20210612030906 60 104 0.0 0.0 0.00 0.08 0.08 87 1013.1
20210612030812 60 104 0.0 0.0 0.00 0.08 0.08 86 1013.1
20210612030717 60 105 0.0 0.0 0.00 0.08 0.08 86 1013.1
20210612030602 60 104 0.0 0.0 0.00 0.08 0.08 86 1013.1
20210612030515 60 104 0.0 0.0 0.00 0.08 0.08 86 1013.2
20210612030404 61 104 0.0 0.0 0.00 0.08 0.08 86 1013.2
20210612030310 61 104 0.0 0.0 0.00 0.08 0.08 85 1013.1
20210612030215 61 104 0.0 0.0 0.00 0.08 0.08 85 1013.2
20210612030100 61 104 0.0 0.0 0.00 0.08 0.08 84 1013.1
20210612030012 61 104 0.0 0.0 0.00 0.08 0.08 84 1013.2
20210612025901 61 104 0.0 0.0 0.00 0.08 0.08 83 1013.1
20210612025805 61 104 0.0 0.0 0.00 0.08 0.08 84 1013.1
20210612025707 61 105 0.0 0.0 0.00 0.08 0.08 84 1013.1
20210612025620 61 105 0.0 0.0 0.00 0.08 0.08 84 1013.1
20210612025525 62 107 0.0 0.0 0.00 0.08 0.08 84 1013.1
20210612025410 62 105 0.0 0.0 0.00 0.08 0.08 84 1013.1
20210612025259 62 108 0.0 0.0 0.00 0.08 0.08 83 1013.1
20210612025205 62 105 0.0 0.0 0.00 0.08 0.08 83 1013.1
20210612025110 62 105 0.0 0.0 0.00 0.08 0.08 82 1013.1
20210612025023 63 108 0.0 0.0 0.00 0.08 0.08 82 1013.0
20210612024908 63 105 0.0 0.0 0.00 0.08 0.08 81 1013.1
20210612024816 63 118 0.0 0.0 0.00 0.08 0.08 81 1013.0
20210612024718 63 119 0.0 0.0 0.00 0.08 0.08 81 1013.1
20210612024603 63 118 0.0 1.0 0.00 0.08 0.08 81 1013.1
20210612024515 63 118 0.0 1.0 0.00 0.08 0.08 81 1013.1
20210612024400 63 118 0.0 1.0 0.00 0.08 0.08 80 1013.0
20210612024305 63 119 0.0 1.0 0.00 0.08 0.08 81 1013.1
20210612024214 63 117 0.0 1.0 0.00 0.08 0.08 81 1013.1
20210612024059 63 118 0.0 1.0 0.00 0.08 0.08 81 1013.1
20210612024012 63 117 0.0 1.0 0.00 0.08 0.08 80 1013.1
20210612023916 63 128 0.0 1.0 0.00 0.08 0.08 81 1013.1
20210612023759 63 133 0.0 1.0 0.00 0.08 0.08 82 1013.1
20210612023709 63 132 0.0 1.0 0.00 0.08 0.08 83 1013.0
20210612023615 62 132 0.0 1.0 0.00 0.08 0.08 83 1013.0
20210612023500 62 132 0.0 1.0 0.00 0.08 0.08 83 1013.0
20210612023412 62 132 0.0 1.0 0.00 0.08 0.08 83 1013.1